Time,TemperatureF,DewpointF,PressureIn,WindDirection,WindDirectionDegrees,WindSpeedMPH,WindSpeedGustMPH,Humidity,HourlyPrecipIn,Conditions,Clouds,dailyrainin,SoftwareType,DateUTC
2013-01-10 00:00:00,35.8,24.8,18.44,SSE,152,5.4,5.8,64,0.00,,CLR,0.00,VWS V14.01,2013-01-10 06:00:00,
2013-01-10 00:02:00,35.8,24.8,18.44,SE,139,5.8,7.2,64,0.00,,CLR,0.00,VWS V14.01,2013-01-10 06:02:00,
2013-01-10 00:04:00,36.0,25.0,18.44,SE,146,4.0,4.9,64,0.00,,CLR,0.00,VWS V14.01,2013-01-10 06:04:00,
2013-01-10 00:05:00,35.8,24.8,18.44,SSE,160,4.9,4.9,64,0.00,,CLR,0.00,VWS V14.01,2013-01-10 06:05:00,
2013-01-10 00:08:00,35.8,24.8,18.44,SE,133,3.6,6.3,64,0.00,,CLR,0.00,VWS V14.01,2013-01-10 06:08:00,
2013-01-10 00:09:00,35.8,24.8,18.44,SE,139,3.1,5.4,64,0.00,,CLR,0.00,VWS V14.01,2013-01-10 06:09:00,
2013-01-10 00:11:00,35.8,24.8,18.44,SE,142,5.4,5.4,64,0.00,,CLR,0.00,VWS V14.01,2013-01-10 06:11:00,
2013-01-10 00:13:00,35.8,24.8,18.44,SSE,149,3.1,5.8,64,0.00,,CLR,0.00,VWS V14.01,2013-01-10 06:13:00,
2013-01-10 00:15:00,35.8,24.8,18.44,SE,143,4.9,4.9,64,0.00,,CLR,0.00,VWS V14.01,2013-01-10 06:15:00,
2013-01-10 00:16:00,35.8,24.8,18.44,SE,139,5.4,5.4,64,0.00,,CLR,0.00,VWS V14.01,2013-01-10 06:16:00,
2013-01-10 00:17:00,35.8,24.8,18.44,SE,146,4.9,4.9,64,0.00,,CLR,0.00,VWS V14.01,2013-01-10 06:17:00,
2013-01-10 00:18:00,35.8,24.8,18.44,SSE,148,4.0,4.0,64,0.00,,CLR,0.00,VWS V14.01,2013-01-10 06:18:00,
2013-01-10 00:21:00,35.8,24.8,18.44,SSE,153,4.0,5.4,64,0.00,,CLR,0.00,VWS V14.01,2013-01-10 06:21:00,
2013-01-10 00:22:00,35.6,24.6,18.44,SSE,152,6.3,6.3,64,0.00,,CLR,0.00,VWS V14.01,2013-01-10 06:22:00,
2013-01-10 00:23:00,35.6,24.6,18.44,SE,137,6.3,6.3,64,0.00,,CLR,0.00,VWS V14.01,2013-01-10 06:23:00,
2013-01-10 00:24:00,35.8,24.8,18.44,SE,137,4.9,6.3,64,0.00,,CLR,0.00,VWS V14.01,2013-01-10 06:24:00,
2013-01-10 00:26:00,35.8,24.8,18.44,SE,133,5.8,5.8,64,0.00,,CLR,0.00,VWS V14.01,2013-01-10 06:26:00,
2013-01-10 00:27:00,35.8,24.8,18.44,SE,136,5.4,5.4,64,0.00,,CLR,0.00,VWS V14.01,2013-01-10 06:27:00,
2013-01-10 00:29:00,36.0,25.0,18.44,SE,134,3.1,5.8,64,0.00,,CLR,0.00,VWS V14.01,2013-01-10 06:29:00,
2013-01-10 00:30:00,36.1,25.1,18.44,SE,129,5.4,5.8,64,0.00,,CLR,0.00,VWS V14.01,2013-01-10 06:30:00,
2013-01-10 00:31:00,36.1,25.1,18.44,SE,140,4.0,5.4,64,0.00,,CLR,0.00,VWS V14.01,2013-01-10 06:31:00,
2013-01-10 00:32:00,36.1,25.1,18.44,SE,142,6.3,6.3,64,0.00,,CLR,0.00,VWS V14.01,2013-01-10 06:32:00,
2013-01-10 00:35:00,36.1,25.1,18.44,SE,137,6.7,6.7,64,0.00,,CLR,0.00,VWS V14.01,2013-01-10 06:35:00,
2013-01-10 00:36:00,36.1,25.1,18.44,SE,141,5.8,6.3,64,0.00,,CLR,0.00,VWS V14.01,2013-01-10 06:36:00,
2013-01-10 00:37:00,36.1,25.1,18.44,SE,131,5.4,5.4,64,0.00,,CLR,0.00,VWS V14.01,2013-01-10 06:37:00,
2013-01-10 00:40:00,36.3,25.3,18.44,SSE,152,3.1,4.0,64,0.00,,CLR,0.00,VWS V14.01,2013-01-10 06:40:00,
2013-01-10 00:41:00,36.3,25.3,18.44,SSE,154,4.0,4.0,64,0.00,,CLR,0.00,VWS V14.01,2013-01-10 06:41:00,
2013-01-10 00:42:00,36.3,25.3,18.44,SE,144,5.4,6.3,64,0.00,,CLR,0.00,VWS V14.01,2013-01-10 06:42:00,
2013-01-10 00:43:00,36.1,25.1,18.44,SE,142,3.1,5.4,64,0.00,,CLR,0.00,VWS V14.01,2013-01-10 06:43:00,
2013-01-10 00:45:00,36.1,25.1,18.44,SE,136,5.4,5.4,64,0.00,,CLR,0.00,VWS V14.01,2013-01-10 06:45:00,
2013-01-10 00:46:00,36.0,25.0,18.44,SE,140,5.4,5.4,64,0.00,,CLR,0.00,VWS V14.01,2013-01-10 06:46:00,
2013-01-10 00:47:00,36.0,25.0,18.44,SE,138,4.9,5.4,64,0.00,,CLR,0.00,VWS V14.01,2013-01-10 06:47:00,
2013-01-10 00:50:00,36.0,25.0,18.44,SE,139,5.8,6.3,64,0.00,,CLR,0.00,VWS V14.01,2013-01-10 06:50:00,
2013-01-10 00:51:00,36.0,25.0,18.44,SE,130,5.4,6.3,64,0.00,,CLR,0.00,VWS V14.01,2013-01-10 06:51:00,
2013-01-10 00:52:00,36.0,25.0,18.44,SE,141,4.9,6.3,64,0.00,,CLR,0.00,VWS V14.01,2013-01-10 06:52:00,
2013-01-10 00:53:00,36.0,25.0,18.44,SE,130,4.9,5.4,64,0.00,,CLR,0.00,VWS V14.01,2013-01-10 06:53:00,
2013-01-10 00:56:00,36.0,25.0,18.44,ESE,120,5.4,5.4,64,0.00,,CLR,0.00,VWS V14.01,2013-01-10 06:56:00,
2013-01-10 00:57:00,36.0,25.0,18.44,SE,126,5.4,5.4,64,0.00,,CLR,0.00,VWS V14.01,2013-01-10 06:57:00,
2013-01-10 00:59:00,36.0,25.0,18.44,SE,129,5.4,5.8,64,0.00,,CLR,0.00,VWS V14.01,2013-01-10 06:59:00,
2013-01-10 01:01:00,36.1,25.1,18.44,SE,138,5.4,6.3,64,0.00,,CLR,0.00,VWS V14.01,2013-01-10 07:01:00,
2013-01-10 01:02:00,36.1,25.1,18.44,ESE,119,5.4,6.3,64,0.00,,CLR,0.00,VWS V14.01,2013-01-10 07:02:00,
2013-01-10 01:04:00,36.1,24.4,18.44,ESE,122,5.4,5.8,62,0.00,,CLR,0.00,VWS V14.01,2013-01-10 07:04:00,
2013-01-10 01:06:00,36.1,24.4,18.44,SE,140,6.3,6.3,62,0.00,,CLR,0.00,VWS V14.01,2013-01-10 07:06:00,
2013-01-10 01:07:00,36.1,24.4,18.44,SE,136,6.7,6.7,62,0.00,,CLR,0.00,VWS V14.01,2013-01-10 07:07:00,
2013-01-10 01:09:00,36.3,24.6,18.44,ESE,122,5.8,5.8,62,0.00,,CLR,0.00,VWS V14.01,2013-01-10 07:09:00,
2013-01-10 01:10:00,36.3,24.6,18.44,SE,134,5.4,5.8,62,0.00,,CLR,0.00,VWS V14.01,2013-01-10 07:10:00,
2013-01-10 01:12:00,36.1,24.4,18.44,SE,142,5.4,6.3,62,0.00,,CLR,0.00,VWS V14.01,2013-01-10 07:12:00,
2013-01-10 01:13:00,36.1,24.4,18.44,SE,131,4.0,6.3,62,0.00,,CLR,0.00,VWS V14.01,2013-01-10 07:13:00,
2013-01-10 01:14:00,36.1,24.4,18.44,SE,128,5.8,6.3,62,0.00,,CLR,0.00,VWS V14.01,2013-01-10 07:14:00,
2013-01-10 01:16:00,36.1,24.4,18.44,SE,136,6.7,6.7,62,0.00,,CLR,0.00,VWS V14.01,2013-01-10 07:16:00,
2013-01-10 01:18:00,36.0,24.2,18.44,SSE,147,5.4,5.8,62,0.00,,CLR,0.00,VWS V14.01,2013-01-10 07:18:00,
2013-01-10 01:19:00,36.0,24.2,18.44,SE,129,5.4,5.4,62,0.00,,CLR,0.00,VWS V14.01,2013-01-10 07:19:00,
2013-01-10 01:20:00,35.8,24.0,18.44,SE,129,5.4,5.4,62,0.00,,CLR,0.00,VWS V14.01,2013-01-10 07:20:00,
2013-01-10 01:22:00,35.8,24.8,18.44,SE,141,5.4,5.4,64,0.00,,CLR,0.00,VWS V14.01,2013-01-10 07:22:00,
2013-01-10 01:23:00,35.8,24.8,18.44,SE,129,5.4,6.3,64,0.00,,CLR,0.00,VWS V14.01,2013-01-10 07:23:00,
2013-01-10 01:24:00,35.8,24.8,18.44,SE,134,6.3,6.3,64,0.00,,CLR,0.00,VWS V14.01,2013-01-10 07:24:00,
2013-01-10 01:26:00,35.8,24.8,18.44,SE,129,5.8,5.8,64,0.00,,CLR,0.00,VWS V14.01,2013-01-10 07:26:00,
2013-01-10 01:27:00,35.8,24.0,18.44,SE,125,5.8,6.3,62,0.00,,CLR,0.00,VWS V14.01,2013-01-10 07:27:00,
2013-01-10 01:28:00,35.8,24.0,18.44,SE,138,5.8,6.3,62,0.00,,CLR,0.00,VWS V14.01,2013-01-10 07:28:00,
2013-01-10 01:29:00,35.8,24.0,18.44,SE,131,6.3,6.3,62,0.00,,CLR,0.00,VWS V14.01,2013-01-10 07:29:00,
2013-01-10 01:31:00,36.0,24.2,18.44,SSE,153,5.4,6.3,62,0.00,,CLR,0.00,VWS V14.01,2013-01-10 07:31:00,
2013-01-10 01:32:00,36.0,24.2,18.44,SE,129,6.3,6.3,62,0.00,,CLR,0.00,VWS V14.01,2013-01-10 07:32:00,
2013-01-10 01:34:00,36.1,24.4,18.44,SE,136,4.9,6.3,62,0.00,,CLR,0.00,VWS V14.01,2013-01-10 07:34:00,
2013-01-10 01:35:00,36.1,24.4,18.44,SE,131,5.4,5.4,62,0.00,,CLR,0.00,VWS V14.01,2013-01-10 07:35:00,
2013-01-10 01:36:00,36.1,24.4,18.44,SE,133,7.6,8.7,62,0.00,,CLR,0.00,VWS V14.01,2013-01-10 07:36:00,
2013-01-10 01:37:00,36.1,24.4,18.44,SE,130,6.3,6.3,62,0.00,,CLR,0.00,VWS V14.01,2013-01-10 07:37:00,
2013-01-10 01:39:00,36.1,24.4,18.44,SE,128,5.4,5.8,62,0.00,,CLR,0.00,VWS V14.01,2013-01-10 07:39:00,
2013-01-10 01:40:00,36.1,24.4,18.44,SE,142,6.3,6.3,62,0.00,,CLR,0.00,VWS V14.01,2013-01-10 07:40:00,
2013-01-10 01:41:00,36.1,24.4,18.44,SE,145,5.4,6.3,62,0.00,,CLR,0.00,VWS V14.01,2013-01-10 07:41:00,
2013-01-10 01:42:00,36.1,24.4,18.44,SE,141,4.5,5.4,62,0.00,,CLR,0.00,VWS V14.01,2013-01-10 07:42:00,
2013-01-10 01:45:00,36.1,24.4,18.44,SE,124,4.9,6.3,62,0.00,,CLR,0.00,VWS V14.01,2013-01-10 07:45:00,
2013-01-10 01:46:00,36.1,24.4,18.44,SE,135,5.4,5.8,62,0.00,,CLR,0.00,VWS V14.01,2013-01-10 07:46:00,
2013-01-10 01:48:00,36.1,24.4,18.44,ESE,122,4.0,5.4,62,0.00,,CLR,0.00,VWS V14.01,2013-01-10 07:48:00,
2013-01-10 01:50:00,36.1,24.4,18.44,SE,132,6.3,6.3,62,0.00,,CLR,0.00,VWS V14.01,2013-01-10 07:50:00,
2013-01-10 01:51:00,36.1,24.4,18.44,SE,124,5.8,5.8,62,0.00,,CLR,0.00,VWS V14.01,2013-01-10 07:51:00,
2013-01-10 01:52:00,36.1,24.4,18.44,SE,131,5.4,6.7,62,0.00,,CLR,0.00,VWS V14.01,2013-01-10 07:52:00,
2013-01-10 01:53:00,36.3,24.6,18.44,SE,127,5.8,5.8,62,0.00,,CLR,0.00,VWS V14.01,2013-01-10 07:53:00,
2013-01-10 01:55:00,36.3,24.6,18.44,SE,129,5.8,6.3,62,0.00,,CLR,0.00,VWS V14.01,2013-01-10 07:55:00,
2013-01-10 01:57:00,36.3,23.8,18.44,ESE,123,5.8,5.8,60,0.00,,CLR,0.00,VWS V14.01,2013-01-10 07:57:00,
2013-01-10 01:58:00,36.3,23.8,18.44,SE,124,5.8,5.8,60,0.00,,CLR,0.00,VWS V14.01,2013-01-10 07:58:00,
2013-01-10 02:00:00,36.3,23.8,18.44,SE,137,5.8,6.3,60,0.00,,CLR,0.00,VWS V14.01,2013-01-10 08:00:00,
2013-01-10 02:02:00,36.3,23.8,18.44,SE,142,4.0,5.8,60,0.00,,CLR,0.00,VWS V14.01,2013-01-10 08:02:00,
2013-01-10 02:03:00,36.3,23.8,18.44,SE,131,5.8,5.8,60,0.00,,CLR,0.00,VWS V14.01,2013-01-10 08:03:00,
2013-01-10 02:06:00,36.3,23.8,18.44,SE,138,6.7,6.7,60,0.00,,CLR,0.00,VWS V14.01,2013-01-10 08:06:00,
2013-01-10 02:09:00,36.1,24.4,18.44,SE,126,4.9,5.4,62,0.00,,CLR,0.00,VWS V14.01,2013-01-10 08:09:00,
2013-01-10 02:11:00,36.1,24.4,18.44,SE,144,8.3,8.3,62,0.00,,CLR,0.00,VWS V14.01,2013-01-10 08:11:00,
2013-01-10 02:12:00,36.1,24.4,18.44,SE,141,4.0,8.3,62,0.00,,CLR,0.00,VWS V14.01,2013-01-10 08:12:00,
2013-01-10 02:14:00,36.1,24.4,18.44,SE,134,5.4,5.8,62,0.00,,CLR,0.00,VWS V14.01,2013-01-10 08:14:00,
2013-01-10 02:15:00,36.1,24.4,18.44,SE,125,5.8,5.8,62,0.00,,CLR,0.00,VWS V14.01,2013-01-10 08:15:00,
2013-01-10 02:16:00,36.1,24.4,18.44,ESE,121,4.9,6.7,62,0.00,,CLR,0.00,VWS V14.01,2013-01-10 08:16:00,
2013-01-10 02:17:00,36.1,24.4,18.44,ESE,123,5.4,5.8,62,0.00,,CLR,0.00,VWS V14.01,2013-01-10 08:17:00,
2013-01-10 02:20:00,36.1,24.4,18.44,SE,129,4.9,4.9,62,0.00,,CLR,0.00,VWS V14.01,2013-01-10 08:20:00,
2013-01-10 02:22:00,36.1,24.4,18.44,ESE,120,5.4,6.3,62,0.00,,CLR,0.00,VWS V14.01,2013-01-10 08:22:00,
2013-01-10 02:23:00,36.3,24.6,18.44,SSE,155,6.3,6.3,62,0.00,,CLR,0.00,VWS V14.01,2013-01-10 08:23:00,
2013-01-10 02:25:00,36.3,24.6,18.44,SE,135,5.8,5.8,62,0.00,,CLR,0.00,VWS V14.01,2013-01-10 08:25:00,
2013-01-10 02:26:00,36.3,24.6,18.44,SE,134,4.9,4.9,62,0.00,,CLR,0.00,VWS V14.01,2013-01-10 08:26:00,
2013-01-10 02:27:00,36.3,23.8,18.44,SE,134,2.2,2.2,60,0.00,,CLR,0.00,VWS V14.01,2013-01-10 08:27:00,
2013-01-10 02:28:00,36.3,23.8,18.44,SE,124,3.6,4.9,60,0.00,,CLR,0.00,VWS V14.01,2013-01-10 08:28:00,
2013-01-10 02:30:00,36.3,23.8,18.44,ESE,123,0.0,3.6,60,0.00,,CLR,0.00,VWS V14.01,2013-01-10 08:30:00,
2013-01-10 02:31:00,36.3,23.8,18.44,ESE,106,3.1,3.1,60,0.00,,CLR,0.00,VWS V14.01,2013-01-10 08:31:00,
2013-01-10 02:33:00,36.3,23.8,18.44,ESE,118,3.6,3.6,60,0.00,,CLR,0.00,VWS V14.01,2013-01-10 08:33:00,
2013-01-10 02:34:00,36.3,23.8,18.44,ESE,118,2.7,2.7,60,0.00,,CLR,0.00,VWS V14.01,2013-01-10 08:34:00,
2013-01-10 02:36:00,36.3,23.8,18.44,SE,124,3.6,3.6,60,0.00,,CLR,0.00,VWS V14.01,2013-01-10 08:36:00,
2013-01-10 02:38:00,36.3,24.6,18.44,SE,128,4.0,4.0,62,0.00,,CLR,0.00,VWS V14.01,2013-01-10 08:38:00,
2013-01-10 02:39:00,36.3,24.6,18.44,ESE,122,4.9,5.4,62,0.00,,CLR,0.00,VWS V14.01,2013-01-10 08:39:00,
2013-01-10 02:41:00,36.3,24.6,18.44,SE,124,3.1,3.1,62,0.00,,CLR,0.00,VWS V14.01,2013-01-10 08:41:00,
2013-01-10 02:42:00,36.3,24.6,18.44,SE,128,5.4,5.4,62,0.00,,CLR,0.00,VWS V14.01,2013-01-10 08:42:00,
2013-01-10 02:43:00,36.5,24.0,18.44,SE,124,4.0,4.0,60,0.00,,CLR,0.00,VWS V14.01,2013-01-10 08:43:00,
2013-01-10 02:45:00,36.5,24.0,18.44,SE,127,5.8,5.8,60,0.00,,CLR,0.00,VWS V14.01,2013-01-10 08:45:00,
2013-01-10 02:46:00,36.5,24.0,18.44,SE,125,5.4,5.4,60,0.00,,CLR,0.00,VWS V14.01,2013-01-10 08:46:00,
2013-01-10 02:47:00,36.7,24.1,18.44,SE,125,5.4,5.4,60,0.00,,CLR,0.00,VWS V14.01,2013-01-10 08:47:00,
2013-01-10 02:49:00,36.7,24.1,18.44,ESE,121,5.4,5.4,60,0.00,,CLR,0.00,VWS V14.01,2013-01-10 08:49:00,
2013-01-10 02:50:00,36.7,24.1,18.44,SE,127,5.8,6.3,60,0.00,,CLR,0.00,VWS V14.01,2013-01-10 08:50:00,
2013-01-10 02:51:00,36.7,24.1,18.44,SE,126,4.0,4.9,60,0.00,,CLR,0.00,VWS V14.01,2013-01-10 08:51:00,
2013-01-10 02:53:00,36.7,24.1,18.44,SE,129,5.4,6.3,60,0.00,,CLR,0.00,VWS V14.01,2013-01-10 08:53:00,
2013-01-10 02:54:00,36.7,24.1,18.44,ESE,123,5.4,5.8,60,0.00,,CLR,0.00,VWS V14.01,2013-01-10 08:54:00,
2013-01-10 02:55:00,36.9,24.3,18.44,SE,126,3.1,5.8,60,0.00,,CLR,0.00,VWS V14.01,2013-01-10 08:55:00,
2013-01-10 02:57:00,36.9,24.3,18.44,ESE,122,5.4,5.4,60,0.00,,CLR,0.00,VWS V14.01,2013-01-10 08:57:00,
2013-01-10 02:58:00,36.9,24.3,18.44,SE,125,5.8,5.8,60,0.00,,CLR,0.00,VWS V14.01,2013-01-10 08:58:00,
2013-01-10 03:00:00,36.9,24.3,18.44,SE,141,3.1,4.9,60,0.00,,CLR,0.00,VWS V14.01,2013-01-10 09:00:00,
2013-01-10 03:01:00,36.9,24.3,18.44,ESE,121,5.8,5.8,60,0.00,,CLR,0.00,VWS V14.01,2013-01-10 09:01:00,
2013-01-10 03:03:00,36.9,24.3,18.44,SE,128,6.3,6.3,60,0.00,,CLR,0.00,VWS V14.01,2013-01-10 09:03:00,
2013-01-10 03:04:00,36.9,24.3,18.44,ESE,117,6.3,6.3,60,0.00,,CLR,0.00,VWS V14.01,2013-01-10 09:04:00,
2013-01-10 03:06:00,36.9,24.3,18.44,SE,125,6.3,6.3,60,0.00,,CLR,0.00,VWS V14.01,2013-01-10 09:06:00,
2013-01-10 03:07:00,37.0,24.5,18.44,SE,126,5.4,6.3,60,0.00,,CLR,0.00,VWS V14.01,2013-01-10 09:07:00,
2013-01-10 03:09:00,37.0,24.5,18.44,SE,133,6.3,8.7,60,0.00,,CLR,0.00,VWS V14.01,2013-01-10 09:09:00,
2013-01-10 03:11:00,37.0,24.5,18.44,SE,132,5.8,5.8,60,0.00,,CLR,0.00,VWS V14.01,2013-01-10 09:11:00,
2013-01-10 03:12:00,37.0,24.5,18.44,SE,133,5.4,5.8,60,0.00,,CLR,0.00,VWS V14.01,2013-01-10 09:12:00,
2013-01-10 03:14:00,37.2,24.6,18.44,SE,131,4.0,5.8,60,0.00,,CLR,0.00,VWS V14.01,2013-01-10 09:14:00,
2013-01-10 03:17:00,37.2,24.6,18.44,SE,124,4.9,5.4,60,0.00,,CLR,0.00,VWS V14.01,2013-01-10 09:17:00,
2013-01-10 03:19:00,37.4,24.8,18.44,SE,128,4.0,5.4,60,0.00,,CLR,0.00,VWS V14.01,2013-01-10 09:19:00,
2013-01-10 03:20:00,37.4,24.8,18.44,ESE,121,3.1,4.0,60,0.00,,CLR,0.00,VWS V14.01,2013-01-10 09:20:00,
2013-01-10 03:24:00,37.4,24.8,18.44,ESE,122,3.6,5.8,60,0.00,,CLR,0.00,VWS V14.01,2013-01-10 09:24:00,
2013-01-10 03:25:00,37.6,25.0,18.44,ESE,121,3.1,5.4,60,0.00,,CLR,0.00,VWS V14.01,2013-01-10 09:25:00,
2013-01-10 03:26:00,37.6,25.0,18.44,SE,140,2.7,2.7,60,0.00,,CLR,0.00,VWS V14.01,2013-01-10 09:26:00,
2013-01-10 03:29:00,37.6,25.0,18.44,ESE,119,5.8,5.8,60,0.00,,CLR,0.00,VWS V14.01,2013-01-10 09:29:00,
2013-01-10 03:30:00,37.6,25.0,18.44,ESE,120,3.1,5.8,60,0.00,,CLR,0.00,VWS V14.01,2013-01-10 09:30:00,
2013-01-10 03:31:00,37.6,25.0,18.44,ESE,120,0.0,0.0,60,0.00,,CLR,0.00,VWS V14.01,2013-01-10 09:31:00,
2013-01-10 03:32:00,37.8,25.1,18.44,ESE,121,2.7,4.9,60,0.00,,CLR,0.00,VWS V14.01,2013-01-10 09:32:00,
2013-01-10 03:35:00,37.8,25.1,18.44,SE,131,3.1,4.9,60,0.00,,CLR,0.00,VWS V14.01,2013-01-10 09:35:00,
2013-01-10 03:36:00,37.8,25.1,18.44,ESE,112,0.0,3.1,60,0.00,,CLR,0.00,VWS V14.01,2013-01-10 09:36:00,
2013-01-10 03:37:00,37.6,25.0,18.44,ESE,113,3.1,4.0,60,0.00,,CLR,0.00,VWS V14.01,2013-01-10 09:37:00,
2013-01-10 03:40:00,37.6,25.0,18.44,ESE,113,2.2,2.2,60,0.00,,CLR,0.00,VWS V14.01,2013-01-10 09:40:00,
2013-01-10 03:41:00,37.6,25.0,18.44,ESE,113,0.0,0.0,60,0.00,,CLR,0.00,VWS V14.01,2013-01-10 09:41:00,
2013-01-10 03:42:00,37.6,25.0,18.44,ESE,113,0.0,0.0,60,0.00,,CLR,0.00,VWS V14.01,2013-01-10 09:42:00,
2013-01-10 03:45:00,37.4,24.8,18.44,ESE,113,0.0,0.0,60,0.00,,CLR,0.00,VWS V14.01,2013-01-10 09:45:00,
2013-01-10 03:47:00,37.4,24.8,18.44,ESE,113,0.0,2.7,60,0.00,,CLR,0.00,VWS V14.01,2013-01-10 09:47:00,
2013-01-10 03:48:00,37.4,24.8,18.44,ESE,113,0.0,0.0,60,0.00,,CLR,0.00,VWS V14.01,2013-01-10 09:48:00,
2013-01-10 03:50:00,37.2,24.6,18.44,ESE,113,2.2,2.2,60,0.00,,CLR,0.00,VWS V14.01,2013-01-10 09:50:00,
2013-01-10 03:52:00,37.0,24.5,18.44,ESE,113,0.0,0.0,60,0.00,,CLR,0.00,VWS V14.01,2013-01-10 09:52:00,
2013-01-10 03:53:00,37.0,24.5,18.44,ESE,111,3.1,3.1,60,0.00,,CLR,0.00,VWS V14.01,2013-01-10 09:53:00,
2013-01-10 03:54:00,37.0,24.5,18.44,East,90,0.0,0.0,60,0.00,,CLR,0.00,VWS V14.01,2013-01-10 09:54:00,
2013-01-10 03:56:00,37.0,24.5,18.44,ESE,107,3.1,4.0,60,0.00,,CLR,0.00,VWS V14.01,2013-01-10 09:56:00,
2013-01-10 03:57:00,37.0,24.5,18.44,ESE,107,0.0,0.0,60,0.00,,CLR,0.00,VWS V14.01,2013-01-10 09:57:00,
2013-01-10 03:58:00,36.9,24.3,18.44,ESE,107,0.0,0.0,60,0.00,,CLR,0.00,VWS V14.01,2013-01-10 09:58:00,
2013-01-10 03:59:00,36.9,24.3,18.44,ESE,107,0.0,0.0,60,0.00,,CLR,0.00,VWS V14.01,2013-01-10 09:59:00,
2013-01-10 04:01:00,36.9,24.3,18.44,ESE,107,0.0,0.0,60,0.00,,CLR,0.00,VWS V14.01,2013-01-10 10:01:00,
2013-01-10 04:03:00,36.9,24.3,18.44,ESE,107,0.0,2.2,60,0.00,,CLR,0.00,VWS V14.01,2013-01-10 10:03:00,
2013-01-10 04:05:00,36.7,24.9,18.44,ESE,121,4.5,4.9,62,0.00,,CLR,0.00,VWS V14.01,2013-01-10 10:05:00,
2013-01-10 04:06:00,36.7,24.9,18.44,ESE,123,5.4,5.4,62,0.00,,CLR,0.00,VWS V14.01,2013-01-10 10:06:00,
2013-01-10 04:08:00,36.7,24.9,18.44,SE,129,0.0,4.0,62,0.00,,CLR,0.00,VWS V14.01,2013-01-10 10:08:00,
2013-01-10 04:10:00,36.7,24.9,18.44,SE,129,0.0,0.0,62,0.00,,CLR,0.00,VWS V14.01,2013-01-10 10:10:00,
2013-01-10 04:11:00,36.7,24.9,18.44,SE,129,0.0,0.0,62,0.00,,CLR,0.00,VWS V14.01,2013-01-10 10:11:00,
2013-01-10 04:13:00,36.7,24.9,18.44,SE,124,5.8,5.8,62,0.00,,CLR,0.00,VWS V14.01,2013-01-10 10:13:00,
2013-01-10 04:14:00,36.7,24.9,18.44,SE,125,4.9,5.8,62,0.00,,CLR,0.00,VWS V14.01,2013-01-10 10:14:00,
2013-01-10 04:15:00,36.5,24.7,18.44,SE,127,5.8,5.8,62,0.00,,CLR,0.00,VWS V14.01,2013-01-10 10:15:00,
2013-01-10 04:16:00,36.5,24.7,18.44,ESE,123,4.9,4.9,62,0.00,,CLR,0.00,VWS V14.01,2013-01-10 10:16:00,
2013-01-10 04:19:00,36.5,24.7,18.44,ESE,123,4.0,4.0,62,0.00,,CLR,0.00,VWS V14.01,2013-01-10 10:19:00,
2013-01-10 04:20:00,36.5,24.7,18.44,ESE,123,4.0,4.9,62,0.00,,CLR,0.00,VWS V14.01,2013-01-10 10:20:00,
2013-01-10 04:21:00,36.5,24.7,18.44,ESE,123,4.0,4.9,62,0.00,,CLR,0.00,VWS V14.01,2013-01-10 10:21:00,
2013-01-10 04:22:00,36.3,24.6,18.44,ESE,123,3.1,4.0,62,0.00,,CLR,0.00,VWS V14.01,2013-01-10 10:22:00,
2013-01-10 04:24:00,36.3,24.6,18.44,ESE,123,3.1,3.1,62,0.00,,CLR,0.00,VWS V14.01,2013-01-10 10:24:00,
2013-01-10 04:26:00,36.3,24.6,18.44,SE,124,4.0,4.0,62,0.00,,CLR,0.00,VWS V14.01,2013-01-10 10:26:00,
2013-01-10 04:27:00,36.3,24.6,18.44,SE,124,0.0,0.0,62,0.00,,CLR,0.00,VWS V14.01,2013-01-10 10:27:00,
2013-01-10 04:29:00,36.1,24.4,18.44,SE,124,0.0,2.7,62,0.00,,CLR,0.00,VWS V14.01,2013-01-10 10:29:00,
2013-01-10 04:31:00,36.1,24.4,18.44,SE,124,0.0,0.0,62,0.00,,CLR,0.00,VWS V14.01,2013-01-10 10:31:00,
2013-01-10 04:32:00,36.1,24.4,18.44,SE,124,0.0,0.0,62,0.00,,CLR,0.00,VWS V14.01,2013-01-10 10:32:00,
2013-01-10 04:36:00,36.1,24.4,18.44,ESE,121,0.0,0.0,62,0.00,,CLR,0.00,VWS V14.01,2013-01-10 10:36:00,
2013-01-10 04:38:00,36.1,24.4,18.44,ESE,121,0.0,0.0,62,0.00,,CLR,0.00,VWS V14.01,2013-01-10 10:38:00,
2013-01-10 04:41:00,36.1,24.4,18.44,ESE,123,2.2,2.7,62,0.00,,CLR,0.00,VWS V14.01,2013-01-10 10:41:00,
2013-01-10 04:42:00,36.1,24.4,18.44,ESE,123,2.7,2.7,62,0.00,,CLR,0.00,VWS V14.01,2013-01-10 10:42:00,
2013-01-10 04:43:00,36.1,24.4,18.44,East,98,2.7,2.7,62,0.00,,CLR,0.00,VWS V14.01,2013-01-10 10:43:00,
2013-01-10 04:46:00,36.1,24.4,18.44,ESE,105,2.7,3.1,62,0.00,,CLR,0.00,VWS V14.01,2013-01-10 10:46:00,
2013-01-10 04:47:00,36.1,24.4,18.44,ESE,111,0.0,3.1,62,0.00,,CLR,0.00,VWS V14.01,2013-01-10 10:47:00,
2013-01-10 04:49:00,36.3,24.6,18.44,SE,127,6.3,6.3,62,0.00,,CLR,0.00,VWS V14.01,2013-01-10 10:49:00,
2013-01-10 04:51:00,36.3,24.6,18.44,SE,128,5.4,6.3,62,0.00,,CLR,0.00,VWS V14.01,2013-01-10 10:51:00,
2013-01-10 04:52:00,36.3,24.6,18.44,SE,128,4.9,6.3,62,0.00,,CLR,0.00,VWS V14.01,2013-01-10 10:52:00,
2013-01-10 04:55:00,36.5,24.7,18.44,SE,126,5.4,5.4,62,0.00,,CLR,0.00,VWS V14.01,2013-01-10 10:55:00,
2013-01-10 04:57:00,36.5,24.7,18.44,SE,129,4.9,5.8,62,0.00,,CLR,0.00,VWS V14.01,2013-01-10 10:57:00,
2013-01-10 05:00:00,36.5,24.7,18.44,SE,124,6.3,6.3,62,0.00,,CLR,0.00,VWS V14.01,2013-01-10 11:00:00,
2013-01-10 05:02:00,36.7,24.9,18.44,SE,127,5.4,5.8,62,0.00,,CLR,0.00,VWS V14.01,2013-01-10 11:02:00,
2013-01-10 05:03:00,36.7,24.9,18.44,SE,135,3.6,5.8,62,0.00,,CLR,0.00,VWS V14.01,2013-01-10 11:03:00,
2013-01-10 05:05:00,36.7,24.1,18.44,ESE,121,3.6,5.4,60,0.00,,CLR,0.00,VWS V14.01,2013-01-10 11:05:00,
2013-01-10 05:07:00,36.7,24.1,18.44,SE,133,5.4,5.4,60,0.00,,CLR,0.00,VWS V14.01,2013-01-10 11:07:00,
2013-01-10 05:08:00,36.7,24.1,18.44,SE,135,3.6,5.4,60,0.00,,CLR,0.00,VWS V14.01,2013-01-10 11:08:00,
2013-01-10 05:10:00,36.9,24.3,18.44,SE,138,2.2,3.1,60,0.00,,CLR,0.00,VWS V14.01,2013-01-10 11:10:00,
2013-01-10 05:12:00,36.9,24.3,18.44,ESE,109,3.1,3.1,60,0.00,,CLR,0.00,VWS V14.01,2013-01-10 11:12:00,
2013-01-10 05:13:00,36.9,24.3,18.44,ESE,109,3.1,3.1,60,0.00,,CLR,0.00,VWS V14.01,2013-01-10 11:13:00,
2013-01-10 05:16:00,36.9,24.3,18.44,ESE,119,0.0,2.7,60,0.00,,CLR,0.00,VWS V14.01,2013-01-10 11:16:00,
2013-01-10 05:17:00,36.9,24.3,18.44,ESE,119,0.0,0.0,60,0.00,,CLR,0.00,VWS V14.01,2013-01-10 11:17:00,
2013-01-10 05:18:00,36.9,24.3,18.44,SE,133,0.0,3.6,60,0.00,,CLR,0.00,VWS V14.01,2013-01-10 11:18:00,
2013-01-10 05:19:00,37.0,24.5,18.44,SE,133,0.0,0.0,60,0.00,,CLR,0.00,VWS V14.01,2013-01-10 11:19:00,
2013-01-10 05:21:00,37.0,24.5,18.44,SE,133,0.0,0.0,60,0.00,,CLR,0.00,VWS V14.01,2013-01-10 11:21:00,
2013-01-10 05:22:00,37.0,24.5,18.44,SE,131,2.7,2.7,60,0.00,,CLR,0.00,VWS V14.01,2013-01-10 11:22:00,
2013-01-10 05:24:00,37.0,24.5,18.44,SE,131,0.0,2.7,60,0.00,,CLR,0.00,VWS V14.01,2013-01-10 11:24:00,
2013-01-10 05:26:00,37.0,24.5,18.44,SE,131,0.0,2.7,60,0.00,,CLR,0.00,VWS V14.01,2013-01-10 11:26:00,
2013-01-10 05:28:00,37.0,24.5,18.44,ESE,114,0.0,0.0,60,0.00,,CLR,0.00,VWS V14.01,2013-01-10 11:28:00,
2013-01-10 05:29:00,37.0,24.5,18.44,ESE,121,3.1,3.1,60,0.00,,CLR,0.00,VWS V14.01,2013-01-10 11:29:00,
2013-01-10 05:30:00,37.2,24.6,18.44,ESE,121,2.7,3.1,60,0.00,,CLR,0.00,VWS V14.01,2013-01-10 11:30:00,
2013-01-10 05:32:00,37.2,24.6,18.44,ESE,120,5.8,5.8,60,0.00,,CLR,0.00,VWS V14.01,2013-01-10 11:32:00,
2013-01-10 05:33:00,37.2,24.6,18.44,ESE,120,5.8,5.8,60,0.00,,CLR,0.00,VWS V14.01,2013-01-10 11:33:00,
2013-01-10 05:34:00,37.4,24.0,18.44,SE,124,3.1,3.6,58,0.00,,CLR,0.00,VWS V14.01,2013-01-10 11:34:00,
2013-01-10 05:35:00,37.4,24.0,18.44,SE,125,0.0,3.6,58,0.00,,CLR,0.00,VWS V14.01,2013-01-10 11:35:00,
2013-01-10 05:38:00,37.4,24.0,18.44,SE,127,4.9,4.9,58,0.00,,CLR,0.00,VWS V14.01,2013-01-10 11:38:00,
2013-01-10 05:39:00,37.4,24.0,18.44,ESE,118,0.0,3.1,58,0.00,,CLR,0.00,VWS V14.01,2013-01-10 11:39:00,
2013-01-10 05:40:00,37.4,24.0,18.44,ESE,117,3.1,4.5,58,0.00,,CLR,0.00,VWS V14.01,2013-01-10 11:40:00,
2013-01-10 05:43:00,37.4,24.0,18.44,ESE,120,4.0,4.9,58,0.00,,CLR,0.00,VWS V14.01,2013-01-10 11:43:00,
2013-01-10 05:44:00,37.4,24.0,18.44,SE,127,7.6,7.6,58,0.00,,CLR,0.00,VWS V14.01,2013-01-10 11:44:00,
2013-01-10 05:45:00,37.4,24.0,18.44,SE,125,0.0,4.0,58,0.00,,CLR,0.00,VWS V14.01,2013-01-10 11:45:00,
2013-01-10 05:48:00,37.6,24.2,18.44,SE,126,4.0,4.0,58,0.00,,CLR,0.00,VWS V14.01,2013-01-10 11:48:00,
2013-01-10 05:49:00,37.6,24.2,18.44,SE,126,0.0,3.1,58,0.00,,CLR,0.00,VWS V14.01,2013-01-10 11:49:00,
2013-01-10 05:50:00,37.6,24.2,18.44,SE,137,5.8,5.8,58,0.00,,CLR,0.00,VWS V14.01,2013-01-10 11:50:00,
2013-01-10 05:51:00,37.6,24.2,18.44,ESE,107,5.4,5.8,58,0.00,,CLR,0.00,VWS V14.01,2013-01-10 11:51:00,
2013-01-10 05:54:00,37.6,24.2,18.44,ESE,123,2.7,5.4,58,0.00,,CLR,0.00,VWS V14.01,2013-01-10 11:54:00,
2013-01-10 05:55:00,37.6,24.2,18.44,SE,126,3.6,6.3,58,0.00,,CLR,0.00,VWS V14.01,2013-01-10 11:55:00,
2013-01-10 05:56:00,37.6,24.2,18.44,SE,126,3.1,4.0,58,0.00,,CLR,0.00,VWS V14.01,2013-01-10 11:56:00,
2013-01-10 06:00:00,37.6,24.2,18.44,ESE,122,3.1,4.0,58,0.00,,CLR,0.00,VWS V14.01,2013-01-10 12:00:00,
2013-01-10 06:01:00,37.6,24.2,18.44,ESE,122,0.0,4.0,58,0.00,,CLR,0.00,VWS V14.01,2013-01-10 12:01:00,
2013-01-10 06:05:00,37.8,24.3,18.44,ESE,117,0.0,0.0,58,0.00,,CLR,0.00,VWS V14.01,2013-01-10 12:05:00,
2013-01-10 06:06:00,37.8,24.3,18.44,ESE,117,0.0,0.0,58,0.00,,CLR,0.00,VWS V14.01,2013-01-10 12:06:00,
2013-01-10 06:11:00,37.8,24.3,18.44,ESE,106,0.0,0.0,58,0.00,,CLR,0.00,VWS V14.01,2013-01-10 12:11:00,
2013-01-10 06:12:00,37.8,24.3,18.44,East,99,4.0,4.0,58,0.00,,CLR,0.00,VWS V14.01,2013-01-10 12:12:00,
2013-01-10 06:16:00,37.9,24.5,18.44,ESE,119,5.8,5.8,58,0.00,,CLR,0.00,VWS V14.01,2013-01-10 12:16:00,
2013-01-10 06:17:00,37.9,24.5,18.44,SE,129,3.1,3.1,58,0.00,,CLR,0.00,VWS V14.01,2013-01-10 12:17:00,
2013-01-10 06:21:00,38.1,24.7,18.44,SE,127,4.0,5.8,58,0.00,,CLR,0.00,VWS V14.01,2013-01-10 12:21:00,
2013-01-10 06:22:00,38.1,24.7,18.44,ESE,123,4.0,4.0,58,0.00,,CLR,0.00,VWS V14.01,2013-01-10 12:22:00,
2013-01-10 06:23:00,38.1,24.7,18.44,SE,124,0.0,3.6,58,0.00,,CLR,0.00,VWS V14.01,2013-01-10 12:23:00,
2013-01-10 06:26:00,38.1,24.7,18.44,SE,124,4.9,4.9,58,0.00,,CLR,0.00,VWS V14.01,2013-01-10 12:26:00,
2013-01-10 06:28:00,38.1,24.7,18.44,SE,124,3.6,6.3,58,0.00,,CLR,0.00,VWS V14.01,2013-01-10 12:28:00,
2013-01-10 06:29:00,38.3,24.8,18.44,SE,128,5.4,5.4,58,0.00,,CLR,0.00,VWS V14.01,2013-01-10 12:29:00,
2013-01-10 06:32:00,38.3,24.8,18.44,ESE,112,2.7,3.6,58,0.00,,CLR,0.00,VWS V14.01,2013-01-10 12:32:00,
2013-01-10 06:33:00,38.5,25.0,18.44,ESE,113,3.6,3.6,58,0.00,,CLR,0.00,VWS V14.01,2013-01-10 12:33:00,
2013-01-10 06:35:00,38.5,25.0,18.44,ESE,119,4.0,5.4,58,0.00,,CLR,0.00,VWS V14.01,2013-01-10 12:35:00,
2013-01-10 06:38:00,38.7,25.2,18.44,ESE,109,2.7,2.7,58,0.00,,CLR,0.00,VWS V14.01,2013-01-10 12:38:00,
2013-01-10 06:40:00,38.7,25.2,18.44,ESE,121,0.0,0.0,58,0.00,,CLR,0.00,VWS V14.01,2013-01-10 12:40:00,
2013-01-10 06:43:00,38.8,25.3,18.44,East,90,3.1,3.1,58,0.00,,CLR,0.00,VWS V14.01,2013-01-10 12:43:00,
2013-01-10 06:44:00,38.8,25.3,18.44,East,81,3.1,3.1,58,0.00,,CLR,0.00,VWS V14.01,2013-01-10 12:44:00,
2013-01-10 06:45:00,38.8,25.3,18.44,ENE,74,0.0,0.0,58,0.00,,CLR,0.00,VWS V14.01,2013-01-10 12:45:00,
2013-01-10 06:46:00,38.8,25.3,18.44,SE,135,3.6,3.6,58,0.00,,CLR,0.00,VWS V14.01,2013-01-10 12:46:00,
2013-01-10 06:48:00,38.8,25.3,18.44,SE,133,0.0,2.2,58,0.00,,CLR,0.00,VWS V14.01,2013-01-10 12:48:00,
2013-01-10 06:49:00,38.8,25.3,18.44,SE,133,4.9,4.9,58,0.00,,CLR,0.00,VWS V14.01,2013-01-10 12:49:00,
2013-01-10 06:51:00,38.8,25.3,18.44,ESE,113,0.0,2.2,58,0.00,,CLR,0.00,VWS V14.01,2013-01-10 12:51:00,
2013-01-10 06:54:00,38.8,22.7,18.44,ESE,102,3.1,3.1,52,0.00,,CLR,0.00,VWS V14.01,2013-01-10 12:54:00,
2013-01-10 06:55:00,38.8,22.7,18.44,SE,135,7.6,7.6,52,0.00,,CLR,0.00,VWS V14.01,2013-01-10 12:55:00,
2013-01-10 06:56:00,38.8,22.7,18.44,East,92,3.1,7.6,52,0.00,,CLR,0.00,VWS V14.01,2013-01-10 12:56:00,
2013-01-10 06:57:00,38.8,22.7,18.44,ESE,111,5.4,7.6,52,0.00,,CLR,0.00,VWS V14.01,2013-01-10 12:57:00,
2013-01-10 07:00:00,39.0,22.9,18.44,ESE,115,2.7,3.1,52,0.00,,BKN120,0.00,VWS V14.01,2013-01-10 13:00:00,
2013-01-10 07:01:00,39.0,22.9,18.44,ESE,109,4.9,5.8,52,0.00,,BKN120,0.00,VWS V14.01,2013-01-10 13:01:00,
2013-01-10 07:02:00,39.0,22.9,18.44,ESE,118,2.7,5.8,52,0.00,,BKN120,0.00,VWS V14.01,2013-01-10 13:02:00,
2013-01-10 07:06:00,39.0,22.9,18.44,East,101,2.2,3.6,52,0.00,,BKN120,0.00,VWS V14.01,2013-01-10 13:06:00,
2013-01-10 07:08:00,39.0,22.9,18.44,ESE,111,3.6,4.9,52,0.00,,BKN120,0.00,VWS V14.01,2013-01-10 13:08:00,
2013-01-10 07:11:00,39.2,20.2,18.44,ESE,117,3.1,6.3,46,0.00,,BKN120,0.00,VWS V14.01,2013-01-10 13:11:00,
2013-01-10 07:13:00,39.2,20.2,18.44,ESE,112,4.0,5.4,46,0.00,,BKN120,0.00,VWS V14.01,2013-01-10 13:13:00,
2013-01-10 07:14:00,39.2,20.2,18.44,ESE,121,2.7,2.7,46,0.00,,BKN120,0.00,VWS V14.01,2013-01-10 13:14:00,
2013-01-10 07:16:00,39.4,20.3,18.44,ESE,120,4.0,4.0,46,0.00,,BKN120,0.00,VWS V14.01,2013-01-10 13:16:00,
2013-01-10 07:18:00,39.4,20.3,18.44,ESE,116,3.1,3.1,46,0.00,,BKN120,0.00,VWS V14.01,2013-01-10 13:18:00,
2013-01-10 07:19:00,39.4,20.3,18.44,ESE,117,3.6,3.6,46,0.00,,BKN120,0.00,VWS V14.01,2013-01-10 13:19:00,
2013-01-10 07:21:00,39.4,20.3,18.44,East,90,2.7,5.8,46,0.00,,BKN120,0.00,VWS V14.01,2013-01-10 13:21:00,
2013-01-10 07:24:00,39.6,20.5,18.44,ESE,121,3.1,4.0,46,0.00,,BKN120,0.00,VWS V14.01,2013-01-10 13:24:00,
2013-01-10 07:27:00,39.6,20.5,18.44,East,87,5.4,5.4,46,0.00,,BKN120,0.00,VWS V14.01,2013-01-10 13:27:00,
2013-01-10 07:29:00,39.6,20.5,18.44,East,80,3.1,3.1,46,0.00,,BKN120,0.00,VWS V14.01,2013-01-10 13:29:00,
2013-01-10 07:30:00,39.7,20.7,18.44,ENE,75,3.6,3.6,46,0.00,,BKN120,0.00,VWS V14.01,2013-01-10 13:30:00,
2013-01-10 07:33:00,39.7,20.7,18.44,East,89,0.0,2.2,46,0.00,,BKN120,0.00,VWS V14.01,2013-01-10 13:33:00,
2013-01-10 07:35:00,39.7,20.7,18.44,East,86,0.0,4.0,46,0.00,,BKN120,0.00,VWS V14.01,2013-01-10 13:35:00,
2013-01-10 07:36:00,39.7,20.7,18.44,East,87,2.7,3.1,46,0.00,,BKN120,0.00,VWS V14.01,2013-01-10 13:36:00,
2013-01-10 07:38:00,39.7,20.7,18.44,East,83,2.7,4.5,46,0.00,,BKN120,0.00,VWS V14.01,2013-01-10 13:38:00,
2013-01-10 07:40:00,39.9,20.8,18.44,East,99,0.0,2.2,46,0.00,,BKN120,0.00,VWS V14.01,2013-01-10 13:40:00,
2013-01-10 07:41:00,39.9,20.8,18.44,East,99,0.0,0.0,46,0.00,,BKN120,0.00,VWS V14.01,2013-01-10 13:41:00,
2013-01-10 07:44:00,39.9,20.8,18.44,East,89,3.1,3.1,46,0.00,,BKN120,0.00,VWS V14.01,2013-01-10 13:44:00,
2013-01-10 07:45:00,39.9,20.8,18.44,SE,128,3.6,5.8,46,0.00,,BKN120,0.00,VWS V14.01,2013-01-10 13:45:00,
2013-01-10 07:46:00,39.9,20.8,18.44,SE,128,3.6,5.8,46,0.00,,BKN120,0.00,VWS V14.01,2013-01-10 13:46:00,
2013-01-10 07:47:00,39.9,20.8,18.44,ESE,106,2.7,5.8,46,0.00,,BKN120,0.00,VWS V14.01,2013-01-10 13:47:00,
2013-01-10 07:49:00,40.1,21.0,18.44,East,97,0.0,2.7,46,0.00,,BKN120,0.00,VWS V14.01,2013-01-10 13:49:00,
2013-01-10 07:50:00,40.1,21.0,18.44,East,101,3.1,3.1,46,0.00,,BKN120,0.00,VWS V14.01,2013-01-10 13:50:00,
2013-01-10 07:51:00,40.1,21.0,18.44,East,93,3.6,3.6,46,0.00,,BKN120,0.00,VWS V14.01,2013-01-10 13:51:00,
2013-01-10 07:52:00,40.1,21.0,18.44,East,93,3.1,3.6,46,0.00,,BKN120,0.00,VWS V14.01,2013-01-10 13:52:00,
2013-01-10 07:55:00,40.3,19.0,18.44,ESE,113,3.1,3.6,42,0.00,,BKN120,0.00,VWS V14.01,2013-01-10 13:55:00,
2013-01-10 07:56:00,40.3,19.0,18.44,ESE,116,2.2,2.2,42,0.00,,BKN120,0.00,VWS V14.01,2013-01-10 13:56:00,
2013-01-10 07:57:00,40.3,19.0,18.44,ESE,106,3.6,3.6,42,0.00,,BKN120,0.00,VWS V14.01,2013-01-10 13:57:00,
2013-01-10 08:00:00,40.5,19.2,18.44,ENE,72,3.6,3.6,42,0.00,,BKN120,0.00,VWS V14.01,2013-01-10 14:00:00,
2013-01-10 08:01:00,40.5,19.2,18.44,ENE,78,2.7,4.0,42,0.00,,BKN110,0.00,VWS V14.01,2013-01-10 14:01:00,
2013-01-10 08:02:00,40.5,19.2,18.44,East,79,0.0,4.0,42,0.00,,BKN110,0.00,VWS V14.01,2013-01-10 14:02:00,
2013-01-10 08:06:00,40.6,19.4,18.44,East,80,2.7,5.4,42,0.00,,BKN110,0.00,VWS V14.01,2013-01-10 14:06:00,
2013-01-10 08:07:00,40.6,19.4,18.44,East,79,4.0,4.0,42,0.00,,BKN110,0.00,VWS V14.01,2013-01-10 14:07:00,
2013-01-10 08:08:00,40.6,19.4,18.44,East,97,2.7,4.9,42,0.00,,BKN110,0.00,VWS V14.01,2013-01-10 14:08:00,
2013-01-10 08:11:00,40.6,19.4,18.44,ESE,118,0.0,3.1,42,0.00,,BKN110,0.00,VWS V14.01,2013-01-10 14:11:00,
2013-01-10 08:12:00,40.6,19.4,18.44,ESE,105,3.6,6.3,42,0.00,,BKN110,0.00,VWS V14.01,2013-01-10 14:12:00,
2013-01-10 08:13:00,40.8,19.5,18.44,ENE,69,3.6,3.6,42,0.00,,BKN110,0.00,VWS V14.01,2013-01-10 14:13:00,
2013-01-10 08:16:00,41.0,19.7,18.44,ESE,116,2.7,3.1,42,0.00,,BKN110,0.00,VWS V14.01,2013-01-10 14:16:00,
2013-01-10 08:17:00,41.0,19.7,18.44,ESE,123,3.1,3.1,42,0.00,,BKN110,0.00,VWS V14.01,2013-01-10 14:17:00,
2013-01-10 08:18:00,41.0,19.7,18.44,ENE,75,3.6,3.6,42,0.00,,BKN110,0.00,VWS V14.01,2013-01-10 14:18:00,
2013-01-10 08:22:00,41.0,19.7,18.44,ESE,112,0.0,0.0,42,0.00,,BKN110,0.00,VWS V14.01,2013-01-10 14:22:00,
2013-01-10 08:23:00,41.0,19.7,18.44,ESE,113,2.2,2.2,42,0.00,,BKN110,0.00,VWS V14.01,2013-01-10 14:23:00,
2013-01-10 08:28:00,41.2,19.9,18.44,ENE,78,0.0,3.6,42,0.00,,BKN110,0.00,VWS V14.01,2013-01-10 14:28:00,
2013-01-10 08:29:00,41.2,19.9,18.44,East,80,0.0,2.2,42,0.00,,BKN110,0.00,VWS V14.01,2013-01-10 14:29:00,
2013-01-10 08:33:00,41.2,19.9,18.44,East,81,0.0,0.0,42,0.00,,BKN110,0.00,VWS V14.01,2013-01-10 14:33:00,
2013-01-10 08:34:00,41.2,19.9,18.44,ESE,102,2.7,2.7,42,0.00,,BKN110,0.00,VWS V14.01,2013-01-10 14:34:00,
2013-01-10 08:36:00,41.2,19.9,18.44,ESE,111,2.7,4.9,42,0.00,,BKN110,0.00,VWS V14.01,2013-01-10 14:36:00,
2013-01-10 08:38:00,41.4,20.0,18.44,SE,128,4.0,4.0,42,0.00,,BKN110,0.00,VWS V14.01,2013-01-10 14:38:00,
2013-01-10 08:39:00,41.4,20.0,18.44,SE,124,4.0,4.0,42,0.00,,BKN110,0.00,VWS V14.01,2013-01-10 14:39:00,
2013-01-10 08:40:00,41.4,20.0,18.44,SE,126,3.1,7.6,42,0.00,,BKN110,0.00,VWS V14.01,2013-01-10 14:40:00,
2013-01-10 08:41:00,41.4,20.0,18.44,ESE,116,0.0,0.0,42,0.00,,BKN110,0.00,VWS V14.01,2013-01-10 14:41:00,
2013-01-10 08:44:00,41.5,20.2,18.44,ENE,61,5.4,5.4,42,0.00,,BKN110,0.00,VWS V14.01,2013-01-10 14:44:00,
2013-01-10 08:45:00,41.5,20.2,18.44,ESE,121,7.6,7.6,42,0.00,,BKN110,0.00,VWS V14.01,2013-01-10 14:45:00,
2013-01-10 08:46:00,41.5,20.2,18.44,ESE,109,4.0,5.4,42,0.00,,BKN110,0.00,VWS V14.01,2013-01-10 14:46:00,
2013-01-10 08:49:00,41.7,20.3,18.44,SE,124,3.6,3.6,42,0.00,,BKN110,0.00,VWS V14.01,2013-01-10 14:49:00,
2013-01-10 08:51:00,41.7,20.3,18.44,SE,130,5.4,6.7,42,0.00,,BKN110,0.00,VWS V14.01,2013-01-10 14:51:00,
2013-01-10 08:52:00,41.7,20.3,18.44,SE,131,6.3,7.6,42,0.00,,BKN110,0.00,VWS V14.01,2013-01-10 14:52:00,
2013-01-10 08:54:00,41.9,20.5,18.44,SSE,153,4.0,8.7,42,0.00,,BKN110,0.00,VWS V14.01,2013-01-10 14:54:00,
2013-01-10 08:56:00,41.9,20.5,18.44,East,100,5.4,7.6,42,0.00,,BKN110,0.00,VWS V14.01,2013-01-10 14:56:00,
2013-01-10 08:57:00,42.1,20.7,18.44,SSE,153,7.2,7.2,42,0.00,,BKN110,0.00,VWS V14.01,2013-01-10 14:57:00,
2013-01-10 09:00:00,42.1,20.7,18.44,ESE,114,3.6,8.7,42,0.00,,BKN110,0.00,VWS V14.01,2013-01-10 15:00:00,
2013-01-10 09:01:00,42.1,20.7,18.44,ESE,118,6.3,8.1,42,0.00,,BKN110,0.00,VWS V14.01,2013-01-10 15:01:00,
2013-01-10 09:05:00,42.3,20.8,18.44,ESE,103,5.4,5.4,42,0.00,,BKN110,0.00,VWS V14.01,2013-01-10 15:05:00,
2013-01-10 09:06:00,42.4,21.0,18.44,ESE,116,14.5,14.5,42,0.00,,BKN110,0.00,VWS V14.01,2013-01-10 15:06:00,
2013-01-10 09:07:00,42.4,21.0,18.44,ESE,121,6.3,8.1,42,0.00,,BKN110,0.00,VWS V14.01,2013-01-10 15:07:00,
2013-01-10 09:11:00,42.4,21.0,18.44,SE,129,3.1,8.7,42,0.00,,BKN110,0.00,VWS V14.01,2013-01-10 15:11:00,
2013-01-10 09:12:00,42.4,21.0,18.44,ESE,112,3.1,4.0,42,0.00,,BKN110,0.00,VWS V14.01,2013-01-10 15:12:00,
2013-01-10 09:17:00,42.8,20.2,18.44,ESE,116,4.9,8.3,40,0.00,,BKN110,0.00,VWS V14.01,2013-01-10 15:17:00,
2013-01-10 09:18:00,42.8,20.2,18.44,ESE,122,8.7,8.7,40,0.00,,BKN110,0.00,VWS V14.01,2013-01-10 15:18:00,
2013-01-10 09:22:00,43.0,20.3,18.44,SE,146,8.3,8.3,40,0.00,,BKN110,0.00,VWS V14.01,2013-01-10 15:22:00,
2013-01-10 09:23:00,43.0,20.3,18.44,ESE,119,4.0,4.0,40,0.00,,BKN110,0.00,VWS V14.01,2013-01-10 15:23:00,
2013-01-10 09:27:00,43.0,20.3,18.44,SE,128,4.0,9.6,40,0.00,,BKN110,0.00,VWS V14.01,2013-01-10 15:27:00,
2013-01-10 09:28:00,43.2,20.5,18.44,ESE,123,5.8,5.8,40,0.00,,BKN110,0.00,VWS V14.01,2013-01-10 15:28:00,
2013-01-10 09:29:00,43.0,20.3,18.44,ESE,113,10.5,11.0,40,0.00,,BKN110,0.00,VWS V14.01,2013-01-10 15:29:00,
2013-01-10 09:33:00,43.2,20.5,18.44,SE,139,7.6,10.1,40,0.00,,-RA,0.00,VWS V14.01,2013-01-10 15:33:00,
2013-01-10 09:34:00,43.2,20.5,18.44,ESE,123,7.6,12.8,40,0.00,,-RA,0.00,VWS V14.01,2013-01-10 15:34:00,
2013-01-10 09:38:00,43.0,20.3,18.44,East,89,8.3,8.3,40,0.00,,-RA,0.00,VWS V14.01,2013-01-10 15:38:00,
2013-01-10 09:39:00,43.0,20.3,18.44,SE,124,10.5,10.5,40,0.00,,-RA,0.00,VWS V14.01,2013-01-10 15:39:00,
2013-01-10 09:40:00,43.0,20.3,18.44,SSE,166,10.5,13.6,40,0.00,,-RA,0.00,VWS V14.01,2013-01-10 15:40:00,
2013-01-10 09:44:00,43.2,20.5,18.44,ESE,122,7.6,10.1,40,0.00,,-RA,0.00,VWS V14.01,2013-01-10 15:44:00,
2013-01-10 09:45:00,43.2,20.5,18.44,East,97,10.5,10.5,40,0.00,,-RA,0.00,VWS V14.01,2013-01-10 15:45:00,
2013-01-10 09:49:00,43.3,20.6,18.44,SE,135,4.0,10.5,40,0.00,,-RA,0.00,VWS V14.01,2013-01-10 15:49:00,
2013-01-10 09:50:00,43.3,20.6,18.44,ESE,117,8.7,12.3,40,0.00,,-RA,0.00,VWS V14.01,2013-01-10 15:50:00,
2013-01-10 09:51:00,43.3,20.6,18.44,SE,131,5.8,10.5,40,0.00,,-RA,0.00,VWS V14.01,2013-01-10 15:51:00,
2013-01-10 09:54:00,43.3,20.6,18.44,SE,124,6.3,6.3,40,0.00,,-RA,0.00,VWS V14.01,2013-01-10 15:54:00,
2013-01-10 09:55:00,43.3,20.6,18.44,SSE,147,5.4,7.6,40,0.00,,-RA,0.00,VWS V14.01,2013-01-10 15:55:00,
2013-01-10 09:56:00,43.3,20.6,18.44,ESE,103,5.8,8.7,40,0.00,,-RA,0.00,VWS V14.01,2013-01-10 15:56:00,
2013-01-10 09:59:00,43.3,20.6,18.44,SE,133,8.1,8.1,40,0.00,,-RA,0.00,VWS V14.01,2013-01-10 15:59:00,
2013-01-10 10:00:00,43.2,20.5,18.44,ESE,113,7.6,8.3,40,0.00,,-RA,0.00,VWS V14.01,2013-01-10 16:00:00,
2013-01-10 10:02:00,43.2,20.5,18.44,SE,124,7.6,7.6,40,0.00,,-RA,0.00,VWS V14.01,2013-01-10 16:02:00,
2013-01-10 10:04:00,43.2,20.5,18.44,SE,143,5.4,11.0,40,0.00,,-RA,0.00,VWS V14.01,2013-01-10 16:04:00,
2013-01-10 10:05:00,43.0,20.3,18.44,SE,129,12.8,12.8,40,0.00,,-RA,0.00,VWS V14.01,2013-01-10 16:05:00,
2013-01-10 10:08:00,43.0,20.3,18.44,SE,133,10.1,10.1,40,0.00,,-RA,0.00,VWS V14.01,2013-01-10 16:08:00,
2013-01-10 10:09:00,43.2,20.5,18.44,SE,141,7.2,8.3,40,0.00,,-RA,0.00,VWS V14.01,2013-01-10 16:09:00,
2013-01-10 10:10:00,43.0,20.3,18.44,ESE,110,5.8,10.1,40,0.00,,-RA,0.00,VWS V14.01,2013-01-10 16:10:00,
2013-01-10 10:13:00,43.0,20.3,18.44,SE,131,5.8,7.6,40,0.00,,-RA,0.00,VWS V14.01,2013-01-10 16:13:00,
2013-01-10 10:15:00,43.0,20.3,18.44,SSE,159,5.4,10.5,40,0.00,,-RA,0.00,VWS V14.01,2013-01-10 16:15:00,
2013-01-10 10:16:00,43.0,20.3,18.44,ESE,115,10.5,11.0,40,0.00,,-RA,0.00,VWS V14.01,2013-01-10 16:16:00,
2013-01-10 10:18:00,42.8,20.2,18.44,SSE,166,5.4,8.1,40,0.00,,-RA,0.00,VWS V14.01,2013-01-10 16:18:00,
2013-01-10 10:20:00,42.8,20.2,18.44,SE,137,7.6,7.6,40,0.00,,-RA,0.00,VWS V14.01,2013-01-10 16:20:00,
2013-01-10 10:21:00,42.8,20.2,18.44,ESE,119,10.1,10.1,40,0.00,,-RA,0.00,VWS V14.01,2013-01-10 16:21:00,
2013-01-10 10:23:00,42.8,20.2,18.44,ESE,121,10.1,10.1,40,0.00,,-RA,0.00,VWS V14.01,2013-01-10 16:23:00,
2013-01-10 10:25:00,42.8,20.2,18.44,SE,125,10.1,11.0,40,0.00,,-RA,0.00,VWS V14.01,2013-01-10 16:25:00,
2013-01-10 10:26:00,42.8,20.2,18.44,East,87,8.1,10.1,40,0.00,,-RA,0.00,VWS V14.01,2013-01-10 16:26:00,
2013-01-10 10:28:00,42.6,23.3,18.44,SE,127,11.4,13.2,46,0.00,,-RA,0.00,VWS V14.01,2013-01-10 16:28:00,
2013-01-10 10:30:00,42.6,23.3,18.44,ESE,115,6.3,6.3,46,0.00,,-RA,0.00,VWS V14.01,2013-01-10 16:30:00,
2013-01-10 10:31:00,42.6,23.3,18.44,ESE,110,8.1,8.1,46,0.00,,-RA,0.00,VWS V14.01,2013-01-10 16:31:00,
2013-01-10 10:34:00,42.4,23.1,18.44,SE,144,12.8,12.8,46,0.00,,-RA,0.00,VWS V14.01,2013-01-10 16:34:00,
2013-01-10 10:35:00,42.4,23.1,18.44,SE,139,7.6,11.0,46,0.00,,-RA,0.00,VWS V14.01,2013-01-10 16:35:00,
2013-01-10 10:36:00,42.4,23.1,18.44,SSE,153,6.3,8.3,46,0.00,,-RA,0.00,VWS V14.01,2013-01-10 16:36:00,
2013-01-10 10:37:00,42.4,23.1,18.44,ESE,113,8.1,8.7,46,0.00,,-RA,0.00,VWS V14.01,2013-01-10 16:37:00,
2013-01-10 10:41:00,42.6,23.3,18.44,ESE,119,3.6,7.6,46,0.00,,-RA,0.00,VWS V14.01,2013-01-10 16:41:00,
2013-01-10 10:42:00,42.6,23.3,18.44,SSE,152,10.1,10.1,46,0.00,,-RA,0.00,VWS V14.01,2013-01-10 16:42:00,
2013-01-10 10:46:00,42.6,26.2,18.44,SSE,155,7.6,11.0,52,0.00,,-RA,0.00,VWS V14.01,2013-01-10 16:46:00,
2013-01-10 10:47:00,42.6,26.2,18.44,SSE,156,8.1,8.7,52,0.00,,-RA,0.00,VWS V14.01,2013-01-10 16:47:00,
2013-01-10 10:48:00,42.6,26.2,18.44,ESE,120,10.1,11.0,52,0.00,,-RA,0.00,VWS V14.01,2013-01-10 16:48:00,
2013-01-10 10:51:00,42.6,26.2,18.44,ESE,109,8.7,10.5,52,0.00,,-RA,0.00,VWS V14.01,2013-01-10 16:51:00,
2013-01-10 10:52:00,42.4,26.1,18.44,SE,128,8.7,10.5,52,0.00,,-RA,0.00,VWS V14.01,2013-01-10 16:52:00,
2013-01-10 10:53:00,42.4,26.1,18.44,SE,145,10.1,10.1,52,0.00,,-RA,0.00,VWS V14.01,2013-01-10 16:53:00,
2013-01-10 10:54:00,42.4,26.1,18.44,SSE,167,7.6,8.1,52,0.00,,-RA,0.00,VWS V14.01,2013-01-10 16:54:00,
2013-01-10 10:57:00,42.3,27.7,18.44,ESE,122,8.1,10.1,56,0.00,,-RA,0.00,VWS V14.01,2013-01-10 16:57:00,
2013-01-10 10:59:00,42.4,27.9,18.44,ESE,118,8.1,8.1,56,0.00,,-RA,0.00,VWS V14.01,2013-01-10 16:59:00,
2013-01-10 11:03:00,42.3,28.5,18.44,ESE,123,6.3,10.5,58,0.00,,OVC060,0.00,VWS V14.01,2013-01-10 17:03:00,
2013-01-10 11:04:00,42.1,28.4,18.44,ESE,116,6.3,8.3,58,0.00,,OVC060,0.00,VWS V14.01,2013-01-10 17:04:00,
2013-01-10 11:08:00,41.9,29.0,18.44,SE,124,10.5,10.5,60,0.00,,OVC060,0.00,VWS V14.01,2013-01-10 17:08:00,
2013-01-10 11:09:00,41.7,29.7,18.44,ESE,120,8.7,10.5,62,0.00,,OVC060,0.00,VWS V14.01,2013-01-10 17:09:00,
2013-01-10 11:10:00,41.7,29.7,18.44,SE,129,10.5,11.0,62,0.00,,OVC060,0.00,VWS V14.01,2013-01-10 17:10:00,
2013-01-10 11:14:00,41.4,31.6,18.44,ESE,123,5.8,11.0,68,0.00,,OVC060,0.00,VWS V14.01,2013-01-10 17:14:00,
2013-01-10 11:15:00,41.2,32.8,18.44,SE,138,7.6,11.0,72,0.00,,OVC060,0.00,VWS V14.01,2013-01-10 17:15:00,
2013-01-10 11:16:00,41.2,33.5,18.44,ESE,122,8.3,11.0,74,0.00,,OVC060,0.00,VWS V14.01,2013-01-10 17:16:00,
2013-01-10 11:19:00,40.8,34.5,18.44,ESE,121,8.1,8.1,78,0.00,,OVC060,0.00,VWS V14.01,2013-01-10 17:19:00,
2013-01-10 11:20:00,40.8,34.5,18.44,ENE,58,6.3,7.6,78,0.00,,OVC060,0.00,VWS V14.01,2013-01-10 17:20:00,
2013-01-10 11:21:00,40.6,34.3,18.44,ESE,105,3.1,5.8,78,0.00,,OVC060,0.00,VWS V14.01,2013-01-10 17:21:00,
2013-01-10 11:25:00,40.5,34.8,18.44,ESE,114,3.6,3.6,80,0.00,,OVC060,0.00,VWS V14.01,2013-01-10 17:25:00,
2013-01-10 11:26:00,40.5,34.8,18.44,East,100,2.7,4.0,80,0.00,,OVC060,0.00,VWS V14.01,2013-01-10 17:26:00,
2013-01-10 11:27:00,40.5,34.8,18.44,ESE,115,0.0,2.7,80,0.00,,OVC060,0.00,VWS V14.01,2013-01-10 17:27:00,
2013-01-10 11:30:00,40.3,35.2,18.44,ESE,122,4.0,5.4,82,0.00,,OVC060,0.00,VWS V14.01,2013-01-10 17:30:00,
2013-01-10 11:31:00,40.1,35.1,18.44,ESE,112,8.1,11.0,82,0.00,,-RA,0.00,VWS V14.01,2013-01-10 17:31:00,
2013-01-10 11:33:00,40.1,35.1,18.44,ESE,117,6.3,7.6,82,0.00,,-RA,0.00,VWS V14.01,2013-01-10 17:33:00,
2013-01-10 11:35:00,40.1,35.7,18.44,SE,136,5.8,6.3,84,0.00,,-RA,0.00,VWS V14.01,2013-01-10 17:35:00,
2013-01-10 11:37:00,40.1,36.3,18.44,SE,124,6.3,6.3,86,0.00,,-RA,0.00,VWS V14.01,2013-01-10 17:37:00,
2013-01-10 11:38:00,40.3,36.4,18.44,ESE,120,5.8,8.1,86,0.00,,-RA,0.00,VWS V14.01,2013-01-10 17:38:00,
2013-01-10 11:41:00,40.3,37.0,18.44,SE,125,4.0,6.7,88,0.00,,-RA,0.00,VWS V14.01,2013-01-10 17:41:00,
2013-01-10 11:42:00,40.3,37.0,18.44,ENE,70,5.4,5.8,88,0.00,,-RA,0.00,VWS V14.01,2013-01-10 17:42:00,
2013-01-10 11:43:00,40.3,37.0,18.44,ESE,102,3.1,5.8,88,0.00,,-RA,0.00,VWS V14.01,2013-01-10 17:43:00,
2013-01-10 11:47:00,40.1,36.8,18.44,East,100,5.4,6.3,88,0.00,,-RA,0.00,VWS V14.01,2013-01-10 17:47:00,
2013-01-10 11:48:00,39.9,37.2,18.44,SE,135,10.5,10.5,90,0.00,,-RA,0.00,VWS V14.01,2013-01-10 17:48:00,
2013-01-10 11:50:00,39.9,37.2,18.44,ENE,78,6.3,12.8,90,0.00,,-RA,0.00,VWS V14.01,2013-01-10 17:50:00,
2013-01-10 11:52:00,39.7,37.6,18.44,SE,142,10.5,10.5,92,0.00,,-RA,0.00,VWS V14.01,2013-01-10 17:52:00,
2013-01-10 11:53:00,39.7,37.6,18.44,ESE,119,10.5,10.5,92,0.00,,-RA,0.00,VWS V14.01,2013-01-10 17:53:00,
2013-01-10 11:54:00,39.7,37.6,18.44,SE,128,8.7,10.5,92,0.00,,-RA,0.00,VWS V14.01,2013-01-10 17:54:00,
2013-01-10 11:55:00,39.7,38.7,18.44,ESE,120,8.7,10.1,96,0.00,,-RA,0.00,VWS V14.01,2013-01-10 17:55:00,
2013-01-10 11:57:00,39.6,38.5,18.44,ESE,120,8.3,8.3,96,0.00,,-RA,0.00,VWS V14.01,2013-01-10 17:57:00,
2013-01-10 11:58:00,39.6,38.5,18.44,ESE,115,5.8,5.8,96,0.00,,-RA,0.00,VWS V14.01,2013-01-10 17:58:00,
2013-01-10 11:59:00,39.6,39.0,18.44,ESE,117,8.7,8.7,98,0.00,,-RA,0.00,VWS V14.01,2013-01-10 17:59:00,
2013-01-10 12:00:00,39.6,39.0,18.44,SE,129,5.8,10.1,98,0.00,,-RA,0.00,VWS V14.01,2013-01-10 18:00:00,
2013-01-10 12:02:00,39.6,39.0,18.44,SE,129,7.2,8.7,98,0.00,,-RA,0.00,VWS V14.01,2013-01-10 18:02:00,
2013-01-10 12:03:00,39.6,39.0,18.44,East,101,5.8,8.7,98,0.00,,-RA,0.00,VWS V14.01,2013-01-10 18:03:00,
2013-01-10 12:04:00,39.6,39.0,18.44,SE,125,8.1,8.1,98,0.00,,-RA,0.00,VWS V14.01,2013-01-10 18:04:00,
2013-01-10 12:06:00,39.6,39.6,18.44,ESE,118,4.9,11.4,100,0.00,,-RA,0.00,VWS V14.01,2013-01-10 18:06:00,
2013-01-10 12:09:00,39.7,39.7,18.44,ESE,105,3.6,10.1,100,0.00,,-RA,0.00,VWS V14.01,2013-01-10 18:09:00,
2013-01-10 12:11:00,39.7,39.7,18.44,SE,136,6.3,6.3,100,0.00,,-RA,0.00,VWS V14.01,2013-01-10 18:11:00,
2013-01-10 12:14:00,39.7,39.7,18.44,SE,135,8.1,11.4,100,0.00,,-RA,0.00,VWS V14.01,2013-01-10 18:14:00,
2013-01-10 12:15:00,39.7,39.7,18.44,SE,130,8.7,13.2,100,0.00,,-RA,0.00,VWS V14.01,2013-01-10 18:15:00,
2013-01-10 12:17:00,39.6,39.6,18.44,SE,124,11.4,11.4,100,0.00,,-RA,0.00,VWS V14.01,2013-01-10 18:17:00,
2013-01-10 12:19:00,39.7,39.7,18.44,SE,138,8.7,11.0,100,0.00,,-RA,0.00,VWS V14.01,2013-01-10 18:19:00,
2013-01-10 12:20:00,39.7,39.7,18.44,ESE,123,11.0,11.0,100,0.00,,-RA,0.00,VWS V14.01,2013-01-10 18:20:00,
2013-01-10 12:22:00,39.7,39.7,18.44,SE,125,8.3,8.3,100,0.00,,-RA,0.00,VWS V14.01,2013-01-10 18:22:00,
2013-01-10 12:25:00,39.9,39.9,18.44,SE,125,6.3,7.6,100,0.00,,-RA,0.00,VWS V14.01,2013-01-10 18:25:00,
2013-01-10 12:26:00,39.9,39.9,18.44,ESE,113,7.6,11.0,100,0.00,,-RA,0.00,VWS V14.01,2013-01-10 18:26:00,
2013-01-10 12:28:00,39.9,39.9,18.44,ESE,122,10.1,11.0,100,0.00,,-RA,0.00,VWS V14.01,2013-01-10 18:28:00,
2013-01-10 12:30:00,39.9,39.9,18.44,SE,126,10.5,10.5,100,0.00,,-RA,0.00,VWS V14.01,2013-01-10 18:30:00,
2013-01-10 12:31:00,39.9,39.9,18.44,SSE,157,11.4,11.4,100,0.00,,-RA,0.00,VWS V14.01,2013-01-10 18:31:00,
2013-01-10 12:35:00,40.1,40.1,18.44,SE,129,8.7,10.5,100,0.00,,-RA,0.00,VWS V14.01,2013-01-10 18:35:00,
2013-01-10 12:36:00,40.1,40.1,18.44,SE,127,10.1,10.1,100,0.00,,-RA,0.00,VWS V14.01,2013-01-10 18:36:00,
2013-01-10 12:37:00,40.3,40.3,18.44,ESE,121,8.3,8.7,100,0.00,,-RA,0.00,VWS V14.01,2013-01-10 18:37:00,
2013-01-10 12:41:00,40.3,40.3,18.44,SE,127,8.3,10.1,100,0.00,,-RA,0.00,VWS V14.01,2013-01-10 18:41:00,
2013-01-10 12:42:00,40.3,40.3,18.44,ESE,113,8.1,10.1,100,0.00,,-RA,0.00,VWS V14.01,2013-01-10 18:42:00,
2013-01-10 12:43:00,40.3,40.3,18.44,SE,125,4.0,10.1,100,0.00,,-RA,0.00,VWS V14.01,2013-01-10 18:43:00,
2013-01-10 12:47:00,40.5,40.5,18.44,SE,131,8.3,8.7,100,0.00,,-RA,0.00,VWS V14.01,2013-01-10 18:47:00,
2013-01-10 12:48:00,40.5,40.5,18.44,SE,140,7.6,8.3,100,0.00,,-RA,0.00,VWS V14.01,2013-01-10 18:48:00,
2013-01-10 12:52:00,41.0,41.0,18.44,SE,124,2.7,2.7,100,0.00,,-RA,0.00,VWS V14.01,2013-01-10 18:52:00,
2013-01-10 12:53:00,41.0,41.0,18.44,ESE,115,8.1,8.3,100,0.00,,-RA,0.00,VWS V14.01,2013-01-10 18:53:00,
2013-01-10 12:57:00,41.2,41.2,18.44,SE,126,2.7,4.9,100,0.00,,-RA,0.00,VWS V14.01,2013-01-10 18:57:00,
2013-01-10 12:58:00,41.2,41.2,18.44,ESE,116,4.9,7.6,100,0.00,,-RA,0.00,VWS V14.01,2013-01-10 18:58:00,
2013-01-10 12:59:00,41.0,41.0,18.44,East,96,8.3,8.3,100,0.00,,-RA,0.00,VWS V14.01,2013-01-10 18:59:00,
2013-01-10 13:02:00,41.0,41.0,18.44,SE,139,6.3,8.7,100,0.00,,,0.00,VWS V14.01,2013-01-10 19:02:00,
2013-01-10 13:03:00,40.8,40.8,18.44,ESE,106,4.0,7.2,100,0.00,,,0.00,VWS V14.01,2013-01-10 19:03:00,
2013-01-10 13:04:00,40.8,40.8,18.44,SE,127,10.1,10.5,100,0.00,,,0.00,VWS V14.01,2013-01-10 19:04:00,
2013-01-10 13:08:00,40.6,40.6,18.44,SSE,166,6.3,10.5,100,0.00,,,0.00,VWS V14.01,2013-01-10 19:08:00,
2013-01-10 13:09:00,40.6,40.6,18.44,South,172,8.1,10.5,100,0.00,,,0.00,VWS V14.01,2013-01-10 19:09:00,
2013-01-10 13:14:00,40.5,40.5,18.44,SSE,164,8.1,8.3,100,0.00,,,0.00,VWS V14.01,2013-01-10 19:14:00,
2013-01-10 13:19:00,40.5,40.5,18.44,SE,139,5.4,8.1,100,0.00,,,0.00,VWS V14.01,2013-01-10 19:19:00,
2013-01-10 13:20:00,40.5,40.5,18.44,SE,124,6.3,6.3,100,0.00,,,0.00,VWS V14.01,2013-01-10 19:20:00,
2013-01-10 13:24:00,40.5,40.5,18.44,South,176,5.4,6.3,100,0.00,,,0.00,VWS V14.01,2013-01-10 19:24:00,
2013-01-10 13:25:00,40.5,40.5,18.44,SSE,156,4.0,4.0,100,0.00,,,0.00,VWS V14.01,2013-01-10 19:25:00,
2013-01-10 13:26:00,40.5,40.5,18.44,SE,146,3.6,3.6,100,0.00,,,0.00,VWS V14.01,2013-01-10 19:26:00,
2013-01-10 13:29:00,40.5,40.5,18.44,SE,126,4.0,6.7,100,0.00,,,0.00,VWS V14.01,2013-01-10 19:29:00,
2013-01-10 13:30:00,40.5,40.5,18.44,SSE,154,4.0,6.3,100,0.00,,,0.00,VWS V14.01,2013-01-10 19:30:00,
2013-01-10 13:31:00,40.5,40.5,18.44,SSE,152,3.6,6.3,100,0.00,,,0.00,VWS V14.01,2013-01-10 19:31:00,
2013-01-10 13:34:00,40.6,40.6,18.44,SSE,151,3.1,3.1,100,0.00,,,0.00,VWS V14.01,2013-01-10 19:34:00,
2013-01-10 13:35:00,40.6,40.6,18.44,SSE,149,3.6,3.6,100,0.00,,,0.00,VWS V14.01,2013-01-10 19:35:00,
2013-01-10 13:36:00,40.6,40.6,18.44,SSE,147,2.7,2.7,100,0.00,,,0.00,VWS V14.01,2013-01-10 19:36:00,
2013-01-10 13:40:00,40.8,40.8,18.44,SE,140,4.0,4.0,100,0.00,,,0.00,VWS V14.01,2013-01-10 19:40:00,
2013-01-10 13:41:00,40.8,40.8,18.44,SSE,149,4.5,5.4,100,0.00,,,0.00,VWS V14.01,2013-01-10 19:41:00,
2013-01-10 13:45:00,41.0,41.0,18.44,SE,138,8.3,9.2,100,0.00,,,0.00,VWS V14.01,2013-01-10 19:45:00,
2013-01-10 13:46:00,41.2,41.2,18.44,SE,124,4.9,5.8,100,0.00,,,0.00,VWS V14.01,2013-01-10 19:46:00,
2013-01-10 13:47:00,41.2,41.2,18.44,SE,124,3.1,5.8,100,0.00,,,0.00,VWS V14.01,2013-01-10 19:47:00,
2013-01-10 13:51:00,41.4,41.4,18.44,SE,130,5.4,6.7,100,0.00,,,0.00,VWS V14.01,2013-01-10 19:51:00,
2013-01-10 13:52:00,41.5,41.5,18.44,SE,124,5.4,6.3,100,0.00,,,0.00,VWS V14.01,2013-01-10 19:52:00,
2013-01-10 13:56:00,41.5,41.5,18.44,SE,142,6.3,6.3,100,0.00,,,0.00,VWS V14.01,2013-01-10 19:56:00,
2013-01-10 13:57:00,41.7,41.7,18.44,SE,128,6.3,6.3,100,0.00,,,0.00,VWS V14.01,2013-01-10 19:57:00,
2013-01-10 14:01:00,41.7,41.7,18.44,SSE,159,4.5,10.1,100,0.00,,,0.00,VWS V14.01,2013-01-10 20:01:00,
2013-01-10 14:02:00,41.7,41.7,18.44,ESE,118,5.8,6.7,100,0.00,,,0.00,VWS V14.01,2013-01-10 20:02:00,
2013-01-10 14:03:00,41.7,41.7,18.44,SE,138,8.7,10.5,100,0.00,,,0.00,VWS V14.01,2013-01-10 20:03:00,
2013-01-10 14:06:00,41.7,41.7,18.44,ESE,118,8.1,8.7,100,0.00,,,0.00,VWS V14.01,2013-01-10 20:06:00,
2013-01-10 14:07:00,41.9,41.9,18.44,ESE,122,8.3,8.7,100,0.00,,,0.00,VWS V14.01,2013-01-10 20:07:00,
2013-01-10 14:08:00,41.9,41.9,18.44,ESE,123,7.6,8.7,100,0.00,,,0.00,VWS V14.01,2013-01-10 20:08:00,
2013-01-10 14:11:00,41.9,41.9,18.44,SE,143,6.3,7.6,100,0.00,,,0.00,VWS V14.01,2013-01-10 20:11:00,
2013-01-10 14:13:00,41.9,41.9,18.44,SE,138,8.3,9.6,100,0.00,,,0.00,VWS V14.01,2013-01-10 20:13:00,
2013-01-10 14:14:00,41.9,41.9,18.44,SE,145,15.4,15.4,100,0.00,,,0.00,VWS V14.01,2013-01-10 20:14:00,
2013-01-10 14:18:00,41.7,41.7,18.44,SE,145,10.5,10.5,100,0.00,,,0.00,VWS V14.01,2013-01-10 20:18:00,
2013-01-10 14:19:00,41.7,41.7,18.44,ESE,122,10.1,10.1,100,0.00,,,0.00,VWS V14.01,2013-01-10 20:19:00,
2013-01-10 14:23:00,41.7,41.7,18.44,SSE,162,8.3,8.7,100,0.00,,,0.00,VWS V14.01,2013-01-10 20:23:00,
2013-01-10 14:24:00,41.7,41.7,18.44,ESE,112,6.3,10.5,100,0.00,,,0.00,VWS V14.01,2013-01-10 20:24:00,
2013-01-10 14:25:00,41.7,41.7,18.44,East,88,5.4,6.3,100,0.00,,,0.00,VWS V14.01,2013-01-10 20:25:00,
2013-01-10 14:29:00,41.7,41.7,18.44,ESE,117,6.3,6.3,100,0.00,,,0.00,VWS V14.01,2013-01-10 20:29:00,
2013-01-10 14:30:00,41.7,41.7,18.44,SE,135,5.8,5.8,100,0.00,,,0.00,VWS V14.01,2013-01-10 20:30:00,
2013-01-10 14:34:00,41.7,41.7,18.44,ESE,119,8.1,10.1,100,0.00,,,0.00,VWS V14.01,2013-01-10 20:34:00,
2013-01-10 14:35:00,41.7,41.7,18.44,SE,124,12.8,12.8,100,0.00,,,0.00,VWS V14.01,2013-01-10 20:35:00,
2013-01-10 14:40:00,41.7,41.7,18.44,SSE,149,10.5,10.5,100,0.00,,,0.00,VWS V14.01,2013-01-10 20:40:00,
2013-01-10 14:45:00,41.5,41.5,18.44,SSE,148,8.1,8.7,100,0.00,,,0.00,VWS V14.01,2013-01-10 20:45:00,
2013-01-10 14:46:00,41.5,41.5,18.44,ESE,112,5.8,5.8,100,0.00,,,0.00,VWS V14.01,2013-01-10 20:46:00,
2013-01-10 14:50:00,41.5,41.5,18.44,SE,140,5.8,8.7,100,0.00,,,0.00,VWS V14.01,2013-01-10 20:50:00,
2013-01-10 14:51:00,41.5,41.5,18.44,SE,140,4.0,4.0,100,0.00,,,0.00,VWS V14.01,2013-01-10 20:51:00,
2013-01-10 14:55:00,41.5,41.5,18.44,SE,128,11.0,11.0,100,0.00,,,0.00,VWS V14.01,2013-01-10 20:55:00,
2013-01-10 14:56:00,41.5,41.5,18.44,SSE,148,8.3,8.3,100,0.00,,,0.00,VWS V14.01,2013-01-10 20:56:00,
2013-01-10 15:00:00,41.5,41.5,18.44,SSE,151,8.1,11.0,100,0.00,,,0.00,VWS V14.01,2013-01-10 21:00:00,
2013-01-10 15:01:00,41.5,41.5,18.44,SE,124,8.7,8.7,100,0.00,,,0.00,VWS V14.01,2013-01-10 21:01:00,
2013-01-10 15:02:00,41.5,41.5,18.44,SE,128,10.5,10.5,100,0.00,,,0.00,VWS V14.01,2013-01-10 21:02:00,
2013-01-10 15:05:00,41.5,41.5,18.44,ESE,123,8.1,8.1,100,0.00,,,0.00,VWS V14.01,2013-01-10 21:05:00,
2013-01-10 15:07:00,41.5,41.5,18.44,SE,130,5.8,7.6,100,0.00,,,0.00,VWS V14.01,2013-01-10 21:07:00,
2013-01-10 15:11:00,41.5,41.5,18.44,SE,126,8.3,10.5,100,0.00,,,0.00,VWS V14.01,2013-01-10 21:11:00,
2013-01-10 15:12:00,41.5,41.5,18.44,SE,138,7.6,8.3,100,0.00,,,0.00,VWS V14.01,2013-01-10 21:12:00,
2013-01-10 15:13:00,41.5,41.5,18.44,SSE,151,10.1,10.1,100,0.00,,,0.00,VWS V14.01,2013-01-10 21:13:00,
2013-01-10 15:16:00,41.7,41.7,18.44,SE,127,4.0,7.6,100,0.00,,,0.00,VWS V14.01,2013-01-10 21:16:00,
2013-01-10 15:17:00,41.7,41.7,18.44,SE,145,8.3,8.3,100,0.00,,,0.00,VWS V14.01,2013-01-10 21:17:00,
2013-01-10 15:18:00,41.7,41.7,18.44,SE,134,8.7,8.7,100,0.00,,,0.00,VWS V14.01,2013-01-10 21:18:00,
2013-01-10 15:22:00,41.7,41.7,18.44,ESE,120,7.6,8.7,100,0.00,,,0.00,VWS V14.01,2013-01-10 21:22:00,
2013-01-10 15:23:00,41.7,41.7,18.44,SE,128,6.3,7.6,100,0.00,,,0.00,VWS V14.01,2013-01-10 21:23:00,
2013-01-10 15:27:00,41.7,41.7,18.44,SE,129,3.6,5.8,100,0.00,,,0.00,VWS V14.01,2013-01-10 21:27:00,
2013-01-10 15:28:00,41.7,41.7,18.44,ESE,119,7.6,8.3,100,0.00,,,0.00,VWS V14.01,2013-01-10 21:28:00,
2013-01-10 15:32:00,41.7,41.7,18.44,ESE,122,2.2,2.2,100,0.00,,,0.00,VWS V14.01,2013-01-10 21:32:00,
2013-01-10 15:33:00,41.7,41.7,18.44,ESE,122,2.7,2.7,100,0.00,,,0.00,VWS V14.01,2013-01-10 21:33:00,
2013-01-10 15:37:00,41.7,41.7,18.44,SE,144,6.3,6.3,100,0.00,,,0.00,VWS V14.01,2013-01-10 21:37:00,
2013-01-10 15:38:00,41.7,41.7,18.44,SE,124,5.4,5.8,100,0.00,,,0.00,VWS V14.01,2013-01-10 21:38:00,
2013-01-10 15:43:00,41.9,41.9,18.44,SE,135,5.4,5.8,100,0.00,,,0.00,VWS V14.01,2013-01-10 21:43:00,
2013-01-10 15:44:00,41.9,41.9,18.44,SE,128,3.1,5.8,100,0.00,,,0.00,VWS V14.01,2013-01-10 21:44:00,
2013-01-10 15:49:00,42.1,42.1,18.44,ESE,110,4.9,8.3,100,0.00,,,0.00,VWS V14.01,2013-01-10 21:49:00,
2013-01-10 15:50:00,42.1,42.1,18.44,SE,125,4.9,7.2,100,0.00,,,0.00,VWS V14.01,2013-01-10 21:50:00,
2013-01-10 15:54:00,42.1,42.1,18.44,SE,127,4.9,8.3,100,0.00,,,0.00,VWS V14.01,2013-01-10 21:54:00,
2013-01-10 15:55:00,42.1,42.1,18.44,SE,140,5.4,5.4,100,0.00,,,0.00,VWS V14.01,2013-01-10 21:55:00,
2013-01-10 15:56:00,42.1,42.1,18.44,SE,128,3.6,8.1,100,0.00,,,0.00,VWS V14.01,2013-01-10 21:56:00,
2013-01-10 16:00:00,42.3,42.3,18.44,SSE,155,6.3,6.3,100,0.00,,,0.00,VWS V14.01,2013-01-10 22:00:00,
2013-01-10 16:01:00,42.3,42.3,18.44,SE,130,5.8,5.8,100,0.00,,,0.00,VWS V14.01,2013-01-10 22:01:00,
2013-01-10 16:05:00,42.3,42.3,18.44,SE,130,3.6,4.0,100,0.00,,,0.00,VWS V14.01,2013-01-10 22:05:00,
2013-01-10 16:06:00,42.3,42.3,18.44,SE,141,3.6,5.8,100,0.00,,,0.00,VWS V14.01,2013-01-10 22:06:00,
2013-01-10 16:10:00,42.4,42.4,18.44,SSE,158,6.7,6.7,100,0.00,,,0.00,VWS V14.01,2013-01-10 22:10:00,
2013-01-10 16:11:00,42.4,42.4,18.44,SE,127,6.3,6.7,100,0.00,,,0.00,VWS V14.01,2013-01-10 22:11:00,
2013-01-10 16:12:00,42.4,42.4,18.44,SE,136,4.0,4.0,100,0.00,,,0.00,VWS V14.01,2013-01-10 22:12:00,
2013-01-10 16:16:00,42.4,42.4,18.44,SE,126,6.3,6.3,100,0.00,,,0.00,VWS V14.01,2013-01-10 22:16:00,
2013-01-10 16:17:00,42.4,42.4,18.44,SE,145,5.4,5.8,100,0.00,,,0.00,VWS V14.01,2013-01-10 22:17:00,
2013-01-10 16:21:00,42.4,42.4,18.44,SE,128,3.1,5.4,100,0.00,,,0.00,VWS V14.01,2013-01-10 22:21:00,
2013-01-10 16:22:00,42.4,42.4,18.44,SE,130,2.7,4.9,100,0.00,,,0.00,VWS V14.01,2013-01-10 22:22:00,
2013-01-10 16:23:00,42.6,42.6,18.44,SE,130,3.6,4.9,100,0.00,,,0.00,VWS V14.01,2013-01-10 22:23:00,
2013-01-10 16:28:00,42.8,42.8,18.44,SE,133,6.3,7.6,100,0.00,,,0.00,VWS V14.01,2013-01-10 22:28:00,
2013-01-10 16:33:00,43.0,43.0,18.44,SE,129,2.7,4.9,100,0.00,,,0.00,VWS V14.01,2013-01-10 22:33:00,
2013-01-10 16:38:00,43.0,43.0,18.44,SE,129,2.7,2.7,100,0.00,,,0.00,VWS V14.01,2013-01-10 22:38:00,
2013-01-10 16:39:00,43.2,43.2,18.44,SE,131,4.0,4.0,100,0.00,,,0.00,VWS V14.01,2013-01-10 22:39:00,
2013-01-10 16:44:00,43.3,43.3,18.44,SE,145,4.0,6.3,100,0.00,,,0.00,VWS V14.01,2013-01-10 22:44:00,
2013-01-10 16:45:00,43.3,43.3,18.44,SSE,158,4.0,5.4,100,0.00,,,0.00,VWS V14.01,2013-01-10 22:45:00,
2013-01-10 16:49:00,43.3,43.3,18.44,SSE,153,4.9,6.3,100,0.00,,,0.00,VWS V14.01,2013-01-10 22:49:00,
2013-01-10 16:50:00,43.3,43.3,18.44,SSE,165,5.8,5.8,100,0.00,,,0.00,VWS V14.01,2013-01-10 22:50:00,
2013-01-10 16:54:00,43.5,43.5,18.44,SE,142,5.8,5.8,100,0.00,,,0.00,VWS V14.01,2013-01-10 22:54:00,
2013-01-10 16:55:00,43.5,43.5,18.44,SSE,147,6.3,6.3,100,0.00,,,0.00,VWS V14.01,2013-01-10 22:55:00,
2013-01-10 16:59:00,43.7,43.7,18.44,SE,138,6.3,6.3,100,0.04,,,0.04,VWS V14.01,2013-01-10 22:59:00,
2013-01-10 17:00:00,43.7,43.7,18.44,SSE,147,5.8,7.6,100,0.04,,,0.04,VWS V14.01,2013-01-10 23:00:00,
2013-01-10 17:04:00,43.7,43.7,18.44,SSE,165,4.0,5.4,100,0.04,,-RA,0.04,VWS V14.01,2013-01-10 23:04:00,
2013-01-10 17:05:00,43.7,43.7,18.44,SSE,158,3.6,5.4,100,0.04,,-RA,0.04,VWS V14.01,2013-01-10 23:05:00,
2013-01-10 17:06:00,43.7,43.7,18.44,SE,137,4.0,5.4,100,0.04,,-RA,0.04,VWS V14.01,2013-01-10 23:06:00,
2013-01-10 17:10:00,43.9,43.9,18.44,SSE,147,5.4,8.7,100,0.04,,-RA,0.04,VWS V14.01,2013-01-10 23:10:00,
2013-01-10 17:11:00,44.1,44.1,18.44,SSE,159,5.4,5.4,100,0.04,,-RA,0.04,VWS V14.01,2013-01-10 23:11:00,
2013-01-10 17:15:00,44.1,44.1,18.44,SSE,149,4.0,5.4,100,0.04,,-RA,0.04,VWS V14.01,2013-01-10 23:15:00,
2013-01-10 17:16:00,44.1,44.1,18.44,SSE,147,5.8,5.8,100,0.04,,-RA,0.04,VWS V14.01,2013-01-10 23:16:00,
2013-01-10 17:17:00,44.1,44.1,18.44,SSE,156,4.0,5.8,100,0.04,,-RA,0.04,VWS V14.01,2013-01-10 23:17:00,
2013-01-10 17:20:00,44.2,44.2,18.44,SE,138,4.9,8.1,100,0.04,,-RA,0.04,VWS V14.01,2013-01-10 23:20:00,
2013-01-10 17:21:00,44.2,44.2,18.44,SE,145,10.5,10.5,100,0.04,,-RA,0.04,VWS V14.01,2013-01-10 23:21:00,
2013-01-10 17:22:00,44.4,44.4,18.44,SSE,150,5.8,11.0,100,0.04,,-RA,0.04,VWS V14.01,2013-01-10 23:22:00,
2013-01-10 17:25:00,44.6,44.6,18.44,South,185,7.6,8.1,100,0.04,,-RA,0.04,VWS V14.01,2013-01-10 23:25:00,
2013-01-10 17:26:00,44.6,44.6,18.44,SE,146,5.8,7.6,100,0.04,,-RA,0.04,VWS V14.01,2013-01-10 23:26:00,
2013-01-10 17:27:00,44.8,44.8,18.44,SSE,167,7.6,8.3,100,0.04,,-RA,0.04,VWS V14.01,2013-01-10 23:27:00,
2013-01-10 17:30:00,44.8,44.8,18.44,SSE,152,7.2,8.1,100,0.04,,-RA,0.04,VWS V14.01,2013-01-10 23:30:00,
2013-01-10 17:32:00,44.8,44.8,18.44,SSE,155,7.2,7.2,100,0.04,,-RA,0.04,VWS V14.01,2013-01-10 23:32:00,
2013-01-10 17:35:00,44.8,44.8,18.44,SSE,155,6.3,8.3,100,0.04,,-RA,0.04,VWS V14.01,2013-01-10 23:35:00,
2013-01-10 17:37:00,44.8,44.8,18.44,SSE,155,5.8,5.8,100,0.04,,-RA,0.04,VWS V14.01,2013-01-10 23:37:00,
2013-01-10 17:40:00,44.8,44.8,18.44,SE,144,5.4,5.4,100,0.04,,-RA,0.04,VWS V14.01,2013-01-10 23:40:00,
2013-01-10 17:41:00,44.8,44.8,18.44,SE,144,4.9,5.8,100,0.04,,-RA,0.04,VWS V14.01,2013-01-10 23:41:00,
2013-01-10 17:43:00,45.0,45.0,18.44,SE,143,4.0,6.7,100,0.04,,-RA,0.04,VWS V14.01,2013-01-10 23:43:00,
2013-01-10 17:45:00,45.0,45.0,18.44,SE,132,4.9,5.4,100,0.04,,-RA,0.04,VWS V14.01,2013-01-10 23:45:00,
2013-01-10 17:47:00,45.0,45.0,18.44,SE,142,5.8,6.3,100,0.04,,-RA,0.04,VWS V14.01,2013-01-10 23:47:00,
2013-01-10 17:48:00,45.0,45.0,18.44,SE,143,5.8,5.8,100,0.04,,-RA,0.04,VWS V14.01,2013-01-10 23:48:00,
2013-01-10 17:50:00,45.0,45.0,18.44,SSE,163,5.4,5.4,100,0.04,,-RA,0.04,VWS V14.01,2013-01-10 23:50:00,
2013-01-10 17:53:00,45.0,45.0,18.44,SSE,157,2.7,5.8,100,0.04,,-RA,0.04,VWS V14.01,2013-01-10 23:53:00,
2013-01-10 17:54:00,45.0,45.0,18.44,SSE,149,3.6,5.8,100,0.04,,-RA,0.04,VWS V14.01,2013-01-10 23:54:00,
2013-01-10 17:55:00,45.0,45.0,18.44,SSE,150,6.3,6.3,100,0.04,,-RA,0.04,VWS V14.01,2013-01-10 23:55:00,
2013-01-10 17:58:00,45.0,45.0,18.44,South,169,3.6,6.3,100,0.04,,-RA,0.04,VWS V14.01,2013-01-10 23:58:00,
2013-01-10 17:59:00,45.1,45.1,18.44,SSE,154,5.4,5.4,100,0.04,,-RA,0.04,VWS V14.01,2013-01-10 23:59:00,
2013-01-10 18:01:00,45.0,45.0,18.44,SSE,150,3.1,4.0,100,0.00,,-RA,0.04,VWS V14.01,2013-01-11 00:01:00,
2013-01-10 18:03:00,45.0,45.0,18.44,SSE,162,6.3,6.3,100,0.04,,-RA,0.08,VWS V14.01,2013-01-11 00:03:00,
2013-01-10 18:04:00,45.1,45.1,18.44,SE,146,4.9,4.9,100,0.04,,-RA,0.08,VWS V14.01,2013-01-11 00:04:00,
2013-01-10 18:06:00,45.1,45.1,18.44,SSE,155,4.9,5.4,100,0.04,,-RA,0.08,VWS V14.01,2013-01-11 00:06:00,
2013-01-10 18:08:00,45.1,45.1,18.44,SSE,160,6.3,6.3,100,0.04,,-RA,0.08,VWS V14.01,2013-01-11 00:08:00,
2013-01-10 18:09:00,45.1,45.1,18.44,SSE,166,3.6,6.3,100,0.04,,-RA,0.08,VWS V14.01,2013-01-11 00:09:00,
2013-01-10 18:13:00,45.1,45.1,18.44,SSE,151,4.9,5.4,100,0.04,,-RA,0.08,VWS V14.01,2013-01-11 00:13:00,
2013-01-10 18:14:00,45.1,45.1,18.44,SSE,156,3.6,5.8,100,0.04,,-RA,0.08,VWS V14.01,2013-01-11 00:14:00,
2013-01-10 18:19:00,45.1,45.1,18.44,SSE,155,3.6,4.9,100,0.04,,-RA,0.08,VWS V14.01,2013-01-11 00:19:00,
2013-01-10 18:20:00,45.1,45.1,18.44,SSE,154,3.6,3.6,100,0.04,,-RA,0.08,VWS V14.01,2013-01-11 00:20:00,
2013-01-10 18:24:00,45.1,45.1,18.44,South,177,3.6,3.6,100,0.08,,-RA,0.12,VWS V14.01,2013-01-11 00:24:00,
2013-01-10 18:25:00,45.0,45.0,18.44,South,174,3.6,3.6,100,0.08,,-RA,0.12,VWS V14.01,2013-01-11 00:25:00,
2013-01-10 18:29:00,45.0,45.0,18.44,SSE,164,4.0,5.4,100,0.08,,-RA,0.12,VWS V14.01,2013-01-11 00:29:00,
2013-01-10 18:30:00,45.0,45.0,18.44,SSE,163,3.6,5.4,100,0.08,,-RA,0.12,VWS V14.01,2013-01-11 00:30:00,
2013-01-10 18:31:00,45.0,45.0,18.44,SSE,147,5.4,5.4,100,0.08,,RA,0.12,VWS V14.01,2013-01-11 00:31:00,
2013-01-10 18:35:00,45.1,45.1,18.44,SSE,164,6.3,6.3,100,0.08,,RA,0.12,VWS V14.01,2013-01-11 00:35:00,
2013-01-10 18:36:00,45.1,45.1,18.44,SSE,159,5.4,5.4,100,0.08,,RA,0.12,VWS V14.01,2013-01-11 00:36:00,
2013-01-10 18:40:00,45.1,45.1,18.44,SE,145,7.2,7.2,100,0.12,,RA,0.16,VWS V14.01,2013-01-11 00:40:00,
2013-01-10 18:41:00,45.1,45.1,18.44,SE,124,8.3,8.3,100,0.12,,RA,0.16,VWS V14.01,2013-01-11 00:41:00,
2013-01-10 18:45:00,45.1,45.1,18.44,SSE,153,4.9,5.8,100,0.12,,RA,0.16,VWS V14.01,2013-01-11 00:45:00,
2013-01-10 18:46:00,45.1,45.1,18.44,SSE,154,5.8,6.3,100,0.12,,RA,0.16,VWS V14.01,2013-01-11 00:46:00,
2013-01-10 18:47:00,45.1,45.1,18.44,SSE,149,8.7,8.7,100,0.12,,RA,0.16,VWS V14.01,2013-01-11 00:47:00,
2013-01-10 18:51:00,45.3,45.3,18.44,SSE,154,6.3,8.3,100,0.12,,RA,0.16,VWS V14.01,2013-01-11 00:51:00,
2013-01-10 18:52:00,45.3,45.3,18.44,SE,144,4.9,7.6,100,0.12,,RA,0.16,VWS V14.01,2013-01-11 00:52:00,
2013-01-10 18:56:00,45.3,45.3,18.44,SE,145,8.1,8.1,100,0.16,,RA,0.20,VWS V14.01,2013-01-11 00:56:00,
2013-01-10 18:57:00,45.3,45.3,18.44,SSE,162,5.8,8.1,100,0.16,,RA,0.20,VWS V14.01,2013-01-11 00:57:00,
2013-01-10 18:58:00,45.1,45.1,18.44,SE,130,5.8,6.3,100,0.16,,RA,0.20,VWS V14.01,2013-01-11 00:58:00,
2013-01-10 19:01:00,45.1,45.1,18.44,SE,142,7.6,7.6,100,0.16,,-RA,0.20,VWS V14.01,2013-01-11 01:01:00,
2013-01-10 19:02:00,45.3,45.3,18.44,SE,140,8.7,8.7,100,0.16,,-RA,0.20,VWS V14.01,2013-01-11 01:02:00,
2013-01-10 19:03:00,45.3,45.3,18.44,SE,139,5.4,5.4,100,0.20,,-RA,0.24,VWS V14.01,2013-01-11 01:03:00,
2013-01-10 19:06:00,45.3,45.3,18.44,SE,142,4.9,5.8,100,0.16,,-RA,0.24,VWS V14.01,2013-01-11 01:06:00,
2013-01-10 19:07:00,45.3,45.3,18.44,SE,130,5.8,5.8,100,0.16,,-RA,0.24,VWS V14.01,2013-01-11 01:07:00,
2013-01-10 19:08:00,45.3,45.3,18.44,SE,144,5.4,6.3,100,0.16,,-RA,0.24,VWS V14.01,2013-01-11 01:08:00,
2013-01-10 19:11:00,45.3,45.3,18.44,SSE,147,5.8,5.8,100,0.16,,-RA,0.24,VWS V14.01,2013-01-11 01:11:00,
2013-01-10 19:13:00,45.3,45.3,18.44,SE,140,4.9,4.9,100,0.16,,-RA,0.24,VWS V14.01,2013-01-11 01:13:00,
2013-01-10 19:14:00,45.3,45.3,18.44,SE,134,5.4,6.3,100,0.16,,-RA,0.24,VWS V14.01,2013-01-11 01:14:00,
2013-01-10 19:17:00,45.3,45.3,18.44,SE,144,7.6,7.6,100,0.16,,-RA,0.24,VWS V14.01,2013-01-11 01:17:00,
2013-01-10 19:19:00,45.3,45.3,18.44,SE,144,5.8,7.6,100,0.16,,-RA,0.24,VWS V14.01,2013-01-11 01:19:00,
2013-01-10 19:23:00,45.5,45.5,18.44,SE,128,6.3,8.1,100,0.16,,-RA,0.24,VWS V14.01,2013-01-11 01:23:00,
2013-01-10 19:24:00,45.5,45.5,18.44,SE,145,8.3,8.3,100,0.16,,-RA,0.28,VWS V14.01,2013-01-11 01:24:00,
2013-01-10 19:28:00,45.7,45.7,18.44,SE,140,8.1,8.1,100,0.16,,-RA,0.28,VWS V14.01,2013-01-11 01:28:00,
2013-01-10 19:29:00,45.7,45.7,18.44,SSE,153,4.9,6.3,100,0.16,,-RA,0.28,VWS V14.01,2013-01-11 01:29:00,
2013-01-10 19:34:00,45.7,45.7,18.44,SE,140,8.7,8.7,100,0.16,,-RA,0.28,VWS V14.01,2013-01-11 01:34:00,
2013-01-10 19:35:00,45.7,45.7,18.44,SE,138,5.8,8.7,100,0.16,,-RA,0.28,VWS V14.01,2013-01-11 01:35:00,
2013-01-10 19:39:00,45.9,45.9,18.44,SE,139,4.9,7.6,100,0.12,,-RA,0.28,VWS V14.01,2013-01-11 01:39:00,
2013-01-10 19:40:00,45.9,45.9,18.44,SE,140,5.4,7.6,100,0.12,,-RA,0.28,VWS V14.01,2013-01-11 01:40:00,
2013-01-10 19:45:00,45.9,45.9,18.44,South,171,3.1,5.4,100,0.16,,-RA,0.31,VWS V14.01,2013-01-11 01:45:00,
2013-01-10 19:46:00,45.9,45.9,18.44,SSE,149,5.4,6.3,100,0.16,,-RA,0.31,VWS V14.01,2013-01-11 01:46:00,
2013-01-10 19:50:00,46.0,46.0,18.44,SE,139,5.8,8.7,100,0.16,,-RA,0.31,VWS V14.01,2013-01-11 01:50:00,
2013-01-10 19:51:00,46.0,46.0,18.44,SSE,168,8.1,8.3,100,0.16,,-RA,0.31,VWS V14.01,2013-01-11 01:51:00,
2013-01-10 19:52:00,46.2,46.2,18.44,SE,137,4.0,5.8,100,0.16,,-RA,0.31,VWS V14.01,2013-01-11 01:52:00,
2013-01-10 19:55:00,46.2,46.2,18.44,SE,135,6.3,6.3,100,0.12,,-RA,0.31,VWS V14.01,2013-01-11 01:55:00,
2013-01-10 19:56:00,46.2,46.2,18.44,SE,141,8.3,8.3,100,0.12,,-RA,0.31,VWS V14.01,2013-01-11 01:56:00,
2013-01-10 19:57:00,46.2,46.2,18.44,SE,139,6.3,6.3,100,0.12,,-RA,0.31,VWS V14.01,2013-01-11 01:57:00,
2013-01-10 20:00:00,46.2,46.2,18.44,SE,131,8.1,8.1,100,0.20,,-RA,0.39,VWS V14.01,2013-01-11 02:00:00,
2013-01-10 20:01:00,46.2,46.2,18.44,SE,145,5.4,8.1,100,0.20,,RA,0.39,VWS V14.01,2013-01-11 02:01:00,
2013-01-10 20:02:00,46.2,46.2,18.44,ESE,119,5.8,5.8,100,0.20,,RA,0.39,VWS V14.01,2013-01-11 02:02:00,
2013-01-10 20:05:00,46.2,46.2,18.44,SE,139,6.3,6.3,100,0.16,,RA,0.39,VWS V14.01,2013-01-11 02:05:00,
2013-01-10 20:06:00,46.2,46.2,18.44,SE,144,3.6,5.8,100,0.16,,RA,0.39,VWS V14.01,2013-01-11 02:06:00,
2013-01-10 20:08:00,46.2,46.2,18.44,SSE,149,5.4,5.8,100,0.16,,RA,0.39,VWS V14.01,2013-01-11 02:08:00,
2013-01-10 20:11:00,46.2,46.2,18.44,SE,144,6.3,6.3,100,0.16,,RA,0.39,VWS V14.01,2013-01-11 02:11:00,
2013-01-10 20:12:00,46.2,46.2,18.44,SE,135,5.8,6.3,100,0.16,,RA,0.39,VWS V14.01,2013-01-11 02:12:00,
2013-01-10 20:13:00,46.2,46.2,18.44,SSE,149,5.8,7.6,100,0.16,,RA,0.39,VWS V14.01,2013-01-11 02:13:00,
2013-01-10 20:16:00,46.2,46.2,18.44,SE,140,5.8,7.6,100,0.16,,RA,0.39,VWS V14.01,2013-01-11 02:16:00,
2013-01-10 20:18:00,46.2,46.2,18.44,SE,139,5.4,8.3,100,0.16,,RA,0.39,VWS V14.01,2013-01-11 02:18:00,
2013-01-10 20:21:00,46.2,46.2,18.44,SSE,158,5.8,5.8,100,0.16,,RA,0.39,VWS V14.01,2013-01-11 02:21:00,
2013-01-10 20:23:00,46.2,46.2,18.44,SE,139,7.2,7.2,100,0.16,,RA,0.39,VWS V14.01,2013-01-11 02:23:00,
2013-01-10 20:24:00,46.2,46.2,18.44,SSE,161,5.8,5.8,100,0.16,,RA,0.39,VWS V14.01,2013-01-11 02:24:00,
2013-01-10 20:26:00,46.2,46.2,18.44,SSE,150,3.6,4.0,100,0.12,,RA,0.39,VWS V14.01,2013-01-11 02:26:00,
2013-01-10 20:28:00,46.2,46.2,18.44,SSE,153,2.7,3.1,100,0.12,,RA,0.39,VWS V14.01,2013-01-11 02:28:00,
2013-01-10 20:29:00,46.2,46.2,18.44,SSE,151,0.0,3.6,100,0.12,,RA,0.39,VWS V14.01,2013-01-11 02:29:00,
2013-01-10 20:31:00,46.2,46.2,18.44,SSE,153,4.9,4.9,100,0.12,,-RA,0.39,VWS V14.01,2013-01-11 02:31:00,
2013-01-10 20:33:00,46.2,46.2,18.44,SE,138,4.0,5.4,100,0.12,,-RA,0.39,VWS V14.01,2013-01-11 02:33:00,
2013-01-10 20:34:00,46.2,46.2,18.44,SE,137,3.6,3.6,100,0.12,,-RA,0.39,VWS V14.01,2013-01-11 02:34:00,
2013-01-10 20:37:00,46.4,46.4,18.44,SE,144,3.6,3.6,100,0.12,,-RA,0.39,VWS V14.01,2013-01-11 02:37:00,
2013-01-10 20:38:00,46.4,46.4,18.44,SE,138,3.1,3.6,100,0.12,,-RA,0.39,VWS V14.01,2013-01-11 02:38:00,
2013-01-10 20:40:00,46.4,46.4,18.44,SE,138,2.7,3.1,100,0.12,,-RA,0.39,VWS V14.01,2013-01-11 02:40:00,
2013-01-10 20:42:00,46.4,46.4,18.44,SE,138,0.0,2.2,100,0.12,,-RA,0.39,VWS V14.01,2013-01-11 02:42:00,
2013-01-10 20:44:00,46.4,46.4,18.44,SE,136,0.0,2.2,100,0.12,,-RA,0.39,VWS V14.01,2013-01-11 02:44:00,
2013-01-10 20:45:00,46.6,46.6,18.44,SE,135,3.1,3.6,100,0.08,,-RA,0.39,VWS V14.01,2013-01-11 02:45:00,
2013-01-10 20:47:00,46.6,46.6,18.44,SE,133,2.7,2.7,100,0.08,,-RA,0.39,VWS V14.01,2013-01-11 02:47:00,
2013-01-10 20:49:00,46.6,46.6,18.44,SE,132,2.7,3.6,100,0.08,,-RA,0.39,VWS V14.01,2013-01-11 02:49:00,
2013-01-10 20:50:00,46.6,46.6,18.44,SE,132,0.0,2.2,100,0.08,,-RA,0.39,VWS V14.01,2013-01-11 02:50:00,
2013-01-10 20:52:00,46.6,46.6,18.44,ESE,120,2.7,2.7,100,0.08,,-RA,0.39,VWS V14.01,2013-01-11 02:52:00,
2013-01-10 20:54:00,46.6,46.6,18.44,ESE,122,2.2,4.9,100,0.08,,-RA,0.39,VWS V14.01,2013-01-11 02:54:00,
2013-01-10 20:56:00,46.6,46.6,18.44,ESE,122,2.7,3.6,100,0.08,,-RA,0.39,VWS V14.01,2013-01-11 02:56:00,
2013-01-10 20:57:00,46.6,46.6,18.44,ESE,122,0.0,0.0,100,0.08,,-RA,0.39,VWS V14.01,2013-01-11 02:57:00,
2013-01-10 21:00:00,46.6,46.6,18.44,ESE,121,2.2,2.7,100,0.00,,-RA,0.39,VWS V14.01,2013-01-11 03:00:00,
2013-01-10 21:01:00,46.6,46.6,18.44,ESE,121,0.0,2.7,100,0.00,,OVC009,0.39,VWS V14.01,2013-01-11 03:01:00,
2013-01-10 21:03:00,46.4,46.4,18.44,ESE,121,3.1,3.1,100,0.00,,OVC009,0.39,VWS V14.01,2013-01-11 03:03:00,
2013-01-10 21:06:00,46.4,46.4,18.44,ESE,121,0.0,0.0,100,0.00,,OVC009,0.39,VWS V14.01,2013-01-11 03:06:00,
2013-01-10 21:08:00,46.2,46.2,18.44,ESE,121,0.0,0.0,100,0.00,,OVC009,0.39,VWS V14.01,2013-01-11 03:08:00,
2013-01-10 21:11:00,46.0,46.0,18.44,ESE,121,0.0,0.0,100,0.00,,OVC009,0.39,VWS V14.01,2013-01-11 03:11:00,
2013-01-10 21:14:00,45.9,45.9,18.44,ESE,121,0.0,0.0,100,0.00,,OVC009,0.39,VWS V14.01,2013-01-11 03:14:00,
2013-01-10 21:16:00,45.9,45.9,18.44,ESE,121,0.0,0.0,100,0.00,,OVC009,0.39,VWS V14.01,2013-01-11 03:16:00,
2013-01-10 21:17:00,45.9,45.9,18.44,ESE,121,0.0,0.0,100,0.00,,OVC009,0.39,VWS V14.01,2013-01-11 03:17:00,
2013-01-10 21:19:00,45.9,45.9,18.44,ESE,121,0.0,0.0,100,0.00,,OVC009,0.39,VWS V14.01,2013-01-11 03:19:00,
2013-01-10 21:22:00,45.7,45.7,18.44,SE,125,5.4,5.4,100,0.00,,OVC009,0.39,VWS V14.01,2013-01-11 03:22:00,
2013-01-10 21:25:00,45.7,45.7,18.44,SE,125,0.0,0.0,100,0.00,,OVC009,0.39,VWS V14.01,2013-01-11 03:25:00,
2013-01-10 21:27:00,45.7,45.7,18.44,SE,125,0.0,0.0,100,0.00,,OVC009,0.39,VWS V14.01,2013-01-11 03:27:00,
2013-01-10 21:31:00,45.5,45.5,18.44,ESE,117,2.7,2.7,100,0.00,,,0.39,VWS V14.01,2013-01-11 03:31:00,
2013-01-10 21:32:00,45.5,45.5,18.44,ESE,117,2.2,2.7,100,0.00,,,0.39,VWS V14.01,2013-01-11 03:32:00,
2013-01-10 21:33:00,45.5,45.5,18.44,ESE,117,3.1,3.1,100,0.00,,,0.39,VWS V14.01,2013-01-11 03:33:00,
2013-01-10 21:36:00,45.5,45.5,18.44,SE,133,4.9,5.4,100,0.00,,,0.39,VWS V14.01,2013-01-11 03:36:00,
2013-01-10 21:37:00,45.5,45.5,18.44,SE,126,4.9,5.4,100,0.00,,,0.39,VWS V14.01,2013-01-11 03:37:00,
2013-01-10 21:38:00,45.5,45.5,18.44,ESE,123,5.4,5.4,100,0.00,,,0.39,VWS V14.01,2013-01-11 03:38:00,
2013-01-10 21:41:00,45.5,45.5,18.44,ESE,119,3.1,3.1,100,0.00,,,0.39,VWS V14.01,2013-01-11 03:41:00,
2013-01-10 21:42:00,45.5,45.5,18.44,ESE,114,3.1,6.3,100,0.00,,,0.39,VWS V14.01,2013-01-11 03:42:00,
2013-01-10 21:43:00,45.5,45.5,18.44,SE,126,4.0,4.0,100,0.00,,,0.39,VWS V14.01,2013-01-11 03:43:00,
2013-01-10 21:46:00,45.3,45.3,18.44,SE,124,3.1,4.0,100,0.00,,,0.39,VWS V14.01,2013-01-11 03:46:00,
2013-01-10 21:48:00,45.3,45.3,18.44,ESE,118,2.2,5.8,100,0.00,,,0.39,VWS V14.01,2013-01-11 03:48:00,
2013-01-10 21:52:00,45.3,45.3,18.44,East,101,3.1,3.1,100,0.00,,,0.39,VWS V14.01,2013-01-11 03:52:00,
2013-01-10 21:53:00,45.3,45.3,18.44,ENE,76,0.0,0.0,100,0.00,,,0.39,VWS V14.01,2013-01-11 03:53:00,
2013-01-10 21:54:00,45.3,45.3,18.44,ENE,76,2.7,2.7,100,0.00,,,0.39,VWS V14.01,2013-01-11 03:54:00,
2013-01-10 21:57:00,45.3,45.3,18.44,ENE,76,0.0,2.7,100,0.00,,,0.39,VWS V14.01,2013-01-11 03:57:00,
2013-01-10 21:58:00,45.3,45.3,18.44,ENE,75,0.0,4.0,100,0.00,,,0.39,VWS V14.01,2013-01-11 03:58:00,
2013-01-10 21:59:00,45.3,45.3,18.44,ENE,75,0.0,0.0,100,0.00,,,0.39,VWS V14.01,2013-01-11 03:59:00,
2013-01-10 22:02:00,45.3,45.3,18.44,ENE,75,0.0,2.2,100,0.00,,,0.39,VWS V14.01,2013-01-11 04:02:00,
2013-01-10 22:03:00,45.3,45.3,18.44,ENE,75,0.0,2.7,100,0.00,,,0.39,VWS V14.01,2013-01-11 04:03:00,
2013-01-10 22:04:00,45.3,45.3,18.44,ESE,107,2.7,2.7,100,0.00,,,0.39,VWS V14.01,2013-01-11 04:04:00,
2013-01-10 22:07:00,45.1,45.1,18.44,ESE,108,0.0,2.7,100,0.00,,,0.39,VWS V14.01,2013-01-11 04:07:00,
2013-01-10 22:08:00,45.1,45.1,18.44,ESE,107,0.0,0.0,100,0.00,,,0.39,VWS V14.01,2013-01-11 04:08:00,
2013-01-10 22:10:00,45.1,45.1,18.44,ESE,108,3.1,3.1,100,0.00,,,0.39,VWS V14.01,2013-01-11 04:10:00,
2013-01-10 22:13:00,45.1,45.1,18.44,East,83,0.0,0.0,100,0.00,,,0.39,VWS V14.01,2013-01-11 04:13:00,
2013-01-10 22:15:00,45.1,45.1,18.44,East,83,0.0,0.0,100,0.00,,,0.39,VWS V14.01,2013-01-11 04:15:00,
2013-01-10 22:17:00,45.1,45.1,18.44,East,83,0.0,0.0,100,0.00,,,0.39,VWS V14.01,2013-01-11 04:17:00,
2013-01-10 22:18:00,45.1,45.1,18.44,East,83,0.0,0.0,100,0.00,,,0.39,VWS V14.01,2013-01-11 04:18:00,
2013-01-10 22:21:00,45.0,45.0,18.44,East,83,0.0,0.0,100,0.00,,,0.39,VWS V14.01,2013-01-11 04:21:00,
2013-01-10 22:22:00,45.0,45.0,18.44,East,83,2.7,2.7,100,0.00,,,0.39,VWS V14.01,2013-01-11 04:22:00,
2013-01-10 22:24:00,45.0,45.0,18.44,ESE,102,4.0,4.0,100,0.00,,,0.39,VWS V14.01,2013-01-11 04:24:00,
2013-01-10 22:26:00,45.0,45.0,18.44,ESE,112,2.7,2.7,100,0.00,,,0.39,VWS V14.01,2013-01-11 04:26:00,
2013-01-10 22:27:00,45.0,45.0,18.44,ESE,111,0.0,2.7,100,0.00,,,0.39,VWS V14.01,2013-01-11 04:27:00,
2013-01-10 22:30:00,45.1,45.1,18.44,SE,139,2.7,4.0,100,0.00,,,0.39,VWS V14.01,2013-01-11 04:30:00,
2013-01-10 22:31:00,45.1,45.1,18.44,SE,139,2.7,4.0,100,0.00,,-RA,0.39,VWS V14.01,2013-01-11 04:31:00,
2013-01-10 22:33:00,45.1,45.1,18.44,SE,140,4.0,4.0,100,0.00,,-RA,0.39,VWS V14.01,2013-01-11 04:33:00,
2013-01-10 22:35:00,45.1,45.1,18.44,SE,146,4.0,5.4,100,0.00,,-RA,0.39,VWS V14.01,2013-01-11 04:35:00,
2013-01-10 22:36:00,45.1,45.1,18.44,SE,141,5.4,5.4,100,0.00,,-RA,0.39,VWS V14.01,2013-01-11 04:36:00,
2013-01-10 22:38:00,45.1,45.1,18.44,SE,135,4.9,4.9,100,0.00,,-RA,0.39,VWS V14.01,2013-01-11 04:38:00,
2013-01-10 22:40:00,45.1,45.1,18.44,SSE,149,5.4,5.4,100,0.00,,-RA,0.39,VWS V14.01,2013-01-11 04:40:00,
2013-01-10 22:41:00,45.1,45.1,18.44,SE,140,4.0,5.4,100,0.00,,-RA,0.39,VWS V14.01,2013-01-11 04:41:00,
2013-01-10 22:43:00,45.1,45.1,18.44,SE,124,4.9,4.9,100,0.00,,-RA,0.39,VWS V14.01,2013-01-11 04:43:00,
2013-01-10 22:45:00,45.1,45.1,18.44,SE,125,3.6,3.6,100,0.00,,-RA,0.39,VWS V14.01,2013-01-11 04:45:00,
2013-01-10 22:47:00,45.1,45.1,18.44,SSE,154,4.9,4.9,100,0.00,,-RA,0.39,VWS V14.01,2013-01-11 04:47:00,
2013-01-10 22:49:00,45.3,45.3,18.44,SE,125,3.1,3.6,100,0.00,,-RA,0.39,VWS V14.01,2013-01-11 04:49:00,
2013-01-10 22:51:00,45.3,45.3,18.44,SE,145,3.6,3.6,100,0.00,,-RA,0.39,VWS V14.01,2013-01-11 04:51:00,
2013-01-10 22:52:00,45.3,45.3,18.44,SE,128,4.0,4.9,100,0.00,,-RA,0.39,VWS V14.01,2013-01-11 04:52:00,
2013-01-10 22:55:00,45.3,45.3,18.44,ESE,123,4.0,5.8,100,0.00,,-RA,0.39,VWS V14.01,2013-01-11 04:55:00,
2013-01-10 22:56:00,45.3,45.3,18.44,SE,130,3.6,4.9,100,0.00,,-RA,0.39,VWS V14.01,2013-01-11 04:56:00,
2013-01-10 22:57:00,45.3,45.3,18.44,SE,132,3.1,3.1,100,0.00,,-RA,0.39,VWS V14.01,2013-01-11 04:57:00,
2013-01-10 23:01:00,45.5,45.5,18.44,SE,140,4.9,5.8,100,0.00,,,0.39,VWS V14.01,2013-01-11 05:01:00,
2013-01-10 23:03:00,45.5,45.5,18.44,SSE,161,4.9,5.4,100,0.00,,,0.39,VWS V14.01,2013-01-11 05:03:00,
2013-01-10 23:06:00,45.5,45.5,18.44,SE,125,5.4,6.3,100,0.00,,,0.39,VWS V14.01,2013-01-11 05:06:00,
2013-01-10 23:08:00,45.5,45.5,18.44,SSE,165,3.1,5.4,100,0.00,,,0.39,VWS V14.01,2013-01-11 05:08:00,
2013-01-10 23:09:00,45.5,45.5,18.44,SSE,147,6.3,6.3,100,0.00,,,0.39,VWS V14.01,2013-01-11 05:09:00,
2013-01-10 23:11:00,45.5,45.5,18.44,SSE,152,5.4,5.4,100,0.00,,,0.39,VWS V14.01,2013-01-11 05:11:00,
2013-01-10 23:12:00,45.5,45.5,18.44,ESE,104,5.4,5.4,100,0.00,,,0.39,VWS V14.01,2013-01-11 05:12:00,
2013-01-10 23:13:00,45.5,45.5,18.44,SSE,151,3.6,4.9,100,0.00,,,0.39,VWS V14.01,2013-01-11 05:13:00,
2013-01-10 23:16:00,45.7,45.7,18.44,SSE,155,5.4,5.4,100,0.00,,,0.39,VWS V14.01,2013-01-11 05:16:00,
2013-01-10 23:17:00,45.7,45.7,18.44,SSE,153,3.1,5.4,100,0.00,,,0.39,VWS V14.01,2013-01-11 05:17:00,
2013-01-10 23:19:00,45.7,45.7,18.44,SSE,162,3.1,5.4,100,0.00,,,0.39,VWS V14.01,2013-01-11 05:19:00,
2013-01-10 23:21:00,45.9,45.9,18.44,SSE,160,4.0,5.8,100,0.00,,,0.39,VWS V14.01,2013-01-11 05:21:00,
2013-01-10 23:22:00,45.9,45.9,18.44,SSE,162,3.6,3.6,100,0.00,,,0.39,VWS V14.01,2013-01-11 05:22:00,
2013-01-10 23:24:00,45.9,45.9,18.44,SSE,165,3.1,4.0,100,0.00,,,0.39,VWS V14.01,2013-01-11 05:24:00,
2013-01-10 23:26:00,45.9,45.9,18.44,South,171,2.7,4.0,100,0.00,,,0.39,VWS V14.01,2013-01-11 05:26:00,
2013-01-10 23:28:00,45.9,45.9,18.44,SSE,154,3.1,4.9,100,0.00,,,0.39,VWS V14.01,2013-01-11 05:28:00,
2013-01-10 23:30:00,46.0,46.0,18.44,SE,145,4.9,4.9,100,0.00,,,0.39,VWS V14.01,2013-01-11 05:30:00,
2013-01-10 23:31:00,46.0,46.0,18.44,SE,144,4.0,4.0,100,0.00,,-RA,0.39,VWS V14.01,2013-01-11 05:31:00,
2013-01-10 23:32:00,46.0,46.0,18.44,SSE,155,4.0,4.0,100,0.00,,-RA,0.39,VWS V14.01,2013-01-11 05:32:00,
2013-01-10 23:33:00,46.2,46.2,18.44,SSE,155,2.7,2.7,100,0.00,,-RA,0.39,VWS V14.01,2013-01-11 05:33:00,
2013-01-10 23:35:00,46.2,46.2,18.44,SSE,155,0.0,0.0,100,0.00,,-RA,0.39,VWS V14.01,2013-01-11 05:35:00,
2013-01-10 23:37:00,46.2,46.2,18.44,SSE,155,0.0,0.0,100,0.00,,-RA,0.39,VWS V14.01,2013-01-11 05:37:00,
2013-01-10 23:38:00,46.2,46.2,18.44,SSE,164,3.6,4.0,100,0.00,,-RA,0.39,VWS V14.01,2013-01-11 05:38:00,
2013-01-10 23:40:00,46.2,46.2,18.44,SSE,164,4.9,4.9,100,0.00,,-RA,0.39,VWS V14.01,2013-01-11 05:40:00,
2013-01-10 23:42:00,46.2,46.2,18.44,SE,146,2.7,3.6,100,0.00,,-RA,0.39,VWS V14.01,2013-01-11 05:42:00,
2013-01-10 23:43:00,46.2,46.2,18.44,SE,146,3.6,3.6,100,0.00,,-RA,0.39,VWS V14.01,2013-01-11 05:43:00,
2013-01-10 23:45:00,46.2,46.2,18.44,SSE,153,3.6,4.0,100,0.00,,-RA,0.39,VWS V14.01,2013-01-11 05:45:00,
2013-01-10 23:48:00,46.2,46.2,18.44,SE,142,3.6,4.9,100,0.00,,-RA,0.39,VWS V14.01,2013-01-11 05:48:00,
2013-01-10 23:49:00,46.2,46.2,18.44,SE,143,3.1,3.6,100,0.00,,-RA,0.39,VWS V14.01,2013-01-11 05:49:00,
2013-01-10 23:50:00,46.2,46.2,18.44,SE,132,3.1,4.9,100,0.00,,-RA,0.39,VWS V14.01,2013-01-11 05:50:00,
2013-01-10 23:53:00,46.4,46.4,18.44,SE,140,5.4,5.4,100,0.00,,-RA,0.39,VWS V14.01,2013-01-11 05:53:00,
2013-01-10 23:54:00,46.4,46.4,18.44,SSE,149,5.8,5.8,100,0.00,,-RA,0.39,VWS V14.01,2013-01-11 05:54:00,
2013-01-10 23:55:00,46.4,46.4,18.44,SE,135,6.3,6.3,100,0.00,,-RA,0.39,VWS V14.01,2013-01-11 05:55:00,
2013-01-10 23:56:00,46.4,46.4,18.44,SE,144,5.4,5.4,100,0.00,,-RA,0.39,VWS V14.01,2013-01-11 05:56:00,
2013-01-10 23:59:00,46.6,46.6,18.44,ESE,115,4.0,4.0,100,0.00,,-RA,0.39,VWS V14.01,2013-01-11 05:59:00,